Time,TemperatureF,DewpointF,PressureIn,WindDirection,WindDirectionDegrees,WindSpeedMPH,WindSpeedGustMPH,Humidity,HourlyPrecipIn,Conditions,Clouds,dailyrainin,SoftwareType,DateUTC
2013-04-01 00:00:00,65.5,63.4,30.02,SE,137,0.0,0.0,93,0.00,,,0.00,Wunderground v.1.15,2013-04-01 04:00:00,
2013-04-01 00:05:00,65.5,63.4,30.02,SE,137,0.0,0.0,93,0.00,,,0.00,Wunderground v.1.15,2013-04-01 04:05:00,
2013-04-01 00:06:00,65.5,63.4,30.02,SE,137,0.0,0.0,93,0.00,,,0.00,Wunderground v.1.15,2013-04-01 04:06:00,
2013-04-01 00:10:00,65.5,63.7,30.02,SE,137,0.0,0.0,94,0.00,,,0.00,Wunderground v.1.15,2013-04-01 04:10:00,
2013-04-01 00:12:00,65.6,63.8,30.02,SE,137,0.0,0.0,94,0.00,,,0.00,Wunderground v.1.15,2013-04-01 04:12:00,
2013-04-01 00:13:00,65.6,63.8,30.02,SE,137,0.0,0.0,94,0.00,,,0.00,Wunderground v.1.15,2013-04-01 04:13:00,
2013-04-01 00:14:00,65.6,63.8,30.02,SE,137,0.0,0.0,94,0.00,,,0.00,Wunderground v.1.15,2013-04-01 04:14:00,
2013-04-01 00:19:00,65.6,63.8,30.02,SE,137,0.0,0.0,94,0.00,,,0.00,Wunderground v.1.15,2013-04-01 04:19:00,
2013-04-01 00:21:00,65.8,64.0,30.02,SE,137,0.0,0.0,94,0.00,,,0.00,Wunderground v.1.15,2013-04-01 04:21:00,
2013-04-01 00:22:00,65.8,64.0,30.02,SE,137,0.0,0.0,94,0.00,,,0.00,Wunderground v.1.15,2013-04-01 04:22:00,
2013-04-01 00:27:00,65.8,64.0,30.02,SE,137,0.0,0.0,94,0.00,,,0.00,Wunderground v.1.15,2013-04-01 04:27:00,
2013-04-01 00:28:00,65.7,63.9,30.02,SE,137,0.0,0.0,94,0.00,,,0.00,Wunderground v.1.15,2013-04-01 04:28:00,
2013-04-01 00:29:00,65.7,63.9,30.02,SE,137,0.0,0.0,94,0.00,,,0.00,Wunderground v.1.15,2013-04-01 04:29:00,
2013-04-01 00:33:00,65.7,63.9,30.02,SE,137,0.0,0.0,94,0.00,,,0.00,Wunderground v.1.15,2013-04-01 04:33:00,
2013-04-01 00:34:00,65.8,64.0,30.02,SE,137,0.0,0.0,94,0.00,,,0.00,Wunderground v.1.15,2013-04-01 04:34:00,
2013-04-01 00:37:00,65.8,64.0,30.02,SE,137,0.0,0.0,94,0.00,,,0.00,Wunderground v.1.15,2013-04-01 04:37:00,
2013-04-01 00:40:00,65.9,64.1,30.02,SE,137,0.0,0.0,94,0.00,,,0.00,Wunderground v.1.15,2013-04-01 04:40:00,
2013-04-01 00:43:00,65.8,64.0,30.02,SE,137,0.0,0.0,94,0.00,,,0.00,Wunderground v.1.15,2013-04-01 04:43:00,
2013-04-01 00:44:00,65.9,64.1,30.02,SE,137,0.0,0.0,94,0.00,,,0.00,Wunderground v.1.15,2013-04-01 04:44:00,
2013-04-01 00:48:00,66.0,64.2,30.02,SE,137,0.0,0.0,94,0.00,,,0.00,Wunderground v.1.15,2013-04-01 04:48:00,
2013-04-01 00:49:00,66.0,64.2,30.02,SE,137,0.0,0.0,94,0.00,,,0.00,Wunderground v.1.15,2013-04-01 04:49:00,
2013-04-01 00:50:00,66.0,64.2,30.02,SE,137,0.0,0.0,94,0.00,,,0.00,Wunderground v.1.15,2013-04-01 04:50:00,
2013-04-01 00:51:00,66.0,64.2,30.02,SE,137,0.0,0.0,94,0.00,,,0.00,Wunderground v.1.15,2013-04-01 04:51:00,
2013-04-01 00:55:00,65.7,63.9,30.01,SE,137,0.0,0.0,94,0.00,,,0.00,Wunderground v.1.15,2013-04-01 04:55:00,
2013-04-01 00:58:00,65.4,63.6,30.01,SE,137,0.0,0.0,94,0.00,,,0.00,Wunderground v.1.15,2013-04-01 04:58:00,
2013-04-01 01:01:00,65.3,63.5,30.01,SE,137,0.0,0.0,94,0.00,,,0.00,Wunderground v.1.15,2013-04-01 05:01:00,
2013-04-01 01:03:00,65.4,63.6,30.01,SE,137,0.0,0.0,94,0.00,,,0.00,Wunderground v.1.15,2013-04-01 05:03:00,
2013-04-01 01:05:00,65.4,63.6,30.01,SE,137,0.0,0.0,94,0.00,,,0.00,Wunderground v.1.15,2013-04-01 05:05:00,
2013-04-01 01:08:00,65.5,64.0,30.01,SE,137,0.0,0.0,95,0.00,,,0.00,Wunderground v.1.15,2013-04-01 05:08:00,
2013-04-01 01:09:00,65.5,64.0,30.01,SE,137,0.0,0.0,95,0.00,,,0.00,Wunderground v.1.15,2013-04-01 05:09:00,
2013-04-01 01:10:00,65.5,64.0,30.01,SE,137,0.0,0.0,95,0.00,,,0.00,Wunderground v.1.15,2013-04-01 05:10:00,
2013-04-01 01:13:00,65.5,64.0,30.01,SE,137,0.0,0.0,95,0.00,,,0.00,Wunderground v.1.15,2013-04-01 05:13:00,
2013-04-01 01:15:00,65.5,64.0,30.01,SE,137,0.0,0.0,95,0.00,,,0.00,Wunderground v.1.15,2013-04-01 05:15:00,
2013-04-01 01:17:00,65.5,64.0,30.01,SE,137,0.0,0.0,95,0.00,,,0.00,Wunderground v.1.15,2013-04-01 05:17:00,
2013-04-01 01:19:00,65.5,64.0,30.01,SE,137,0.0,0.0,95,0.00,,,0.00,Wunderground v.1.15,2013-04-01 05:19:00,
2013-04-01 01:20:00,65.5,64.0,30.01,SE,137,0.0,0.0,95,0.00,,,0.00,Wunderground v.1.15,2013-04-01 05:20:00,
2013-04-01 01:23:00,65.5,64.0,30.01,SE,137,0.0,0.0,95,0.00,,,0.00,Wunderground v.1.15,2013-04-01 05:23:00,
2013-04-01 01:26:00,65.5,64.0,30.01,SE,137,0.0,0.0,95,0.00,,,0.00,Wunderground v.1.15,2013-04-01 05:26:00,
2013-04-01 01:27:00,65.5,64.0,30.01,SE,137,0.0,0.0,95,0.00,,,0.00,Wunderground v.1.15,2013-04-01 05:27:00,
2013-04-01 01:31:00,65.6,64.1,30.01,SE,137,0.0,0.0,95,0.00,,,0.00,Wunderground v.1.15,2013-04-01 05:31:00,
2013-04-01 01:33:00,65.7,64.2,30.01,SE,137,0.0,0.0,95,0.00,,,0.00,Wunderground v.1.15,2013-04-01 05:33:00,
2013-04-01 01:35:00,65.7,64.2,30.01,SE,137,0.0,0.0,95,0.00,,,0.00,Wunderground v.1.15,2013-04-01 05:35:00,
2013-04-01 01:38:00,65.4,63.9,30.01,SE,137,0.0,0.0,95,0.00,,,0.00,Wunderground v.1.15,2013-04-01 05:38:00,
2013-04-01 01:40:00,65.3,63.5,30.00,SE,137,0.0,0.0,94,0.00,,,0.00,Wunderground v.1.15,2013-04-01 05:40:00,
2013-04-01 01:41:00,65.2,63.7,30.00,SE,137,0.0,0.0,95,0.00,,,0.00,Wunderground v.1.15,2013-04-01 05:41:00,
2013-04-01 01:44:00,65.2,63.7,30.00,SE,137,0.0,0.0,95,0.00,,,0.00,Wunderground v.1.15,2013-04-01 05:44:00,
2013-04-01 01:45:00,65.1,63.6,30.00,SE,137,0.0,0.0,95,0.00,,,0.00,Wunderground v.1.15,2013-04-01 05:45:00,
2013-04-01 01:47:00,65.3,63.8,30.00,SE,137,0.0,0.0,95,0.00,,,0.00,Wunderground v.1.15,2013-04-01 05:47:00,
2013-04-01 01:50:00,65.6,64.1,29.99,SE,137,0.0,0.0,95,0.00,,,0.00,Wunderground v.1.15,2013-04-01 05:50:00,
2013-04-01 01:53:00,65.8,64.3,29.99,SE,137,0.0,0.0,95,0.00,,,0.00,Wunderground v.1.15,2013-04-01 05:53:00,
2013-04-01 01:57:00,65.9,64.4,29.99,SE,137,0.0,0.0,95,0.00,,,0.00,Wunderground v.1.15,2013-04-01 05:57:00,
2013-04-01 01:59:00,65.8,64.3,29.99,SE,137,0.0,0.0,95,0.00,,,0.00,Wunderground v.1.15,2013-04-01 05:59:00,
2013-04-01 02:01:00,65.6,64.1,29.99,SE,137,0.0,0.0,95,0.00,,,0.00,Wunderground v.1.15,2013-04-01 06:01:00,
2013-04-01 02:02:00,65.6,64.1,29.99,SE,137,0.0,0.0,95,0.00,,,0.00,Wunderground v.1.15,2013-04-01 06:02:00,
2013-04-01 02:06:00,65.7,64.2,29.99,SE,137,0.0,0.0,95,0.00,,,0.00,Wunderground v.1.15,2013-04-01 06:06:00,
2013-04-01 02:07:00,65.8,64.3,29.99,SE,137,0.0,0.0,95,0.00,,,0.00,Wunderground v.1.15,2013-04-01 06:07:00,
2013-04-01 02:08:00,65.8,64.3,29.99,SE,137,0.0,0.0,95,0.00,,,0.00,Wunderground v.1.15,2013-04-01 06:08:00,
2013-04-01 02:10:00,66.0,64.5,29.99,SE,137,0.0,0.0,95,0.00,,,0.00,Wunderground v.1.15,2013-04-01 06:10:00,
2013-04-01 02:12:00,66.2,64.7,29.99,SE,137,0.0,0.0,95,0.00,,,0.00,Wunderground v.1.15,2013-04-01 06:12:00,
2013-04-01 02:13:00,66.3,65.1,29.99,SE,137,0.0,0.0,96,0.00,,,0.00,Wunderground v.1.15,2013-04-01 06:13:00,
2013-04-01 02:15:00,66.8,65.6,29.99,SE,137,0.0,0.0,96,0.00,,,0.00,Wunderground v.1.15,2013-04-01 06:15:00,
2013-04-01 02:17:00,67.2,66.0,29.99,SE,137,0.0,0.0,96,0.00,,,0.00,Wunderground v.1.15,2013-04-01 06:17:00,
2013-04-01 02:18:00,67.2,66.0,29.99,SE,137,0.0,0.0,96,0.00,,,0.00,Wunderground v.1.15,2013-04-01 06:18:00,
2013-04-01 02:19:00,67.2,66.0,29.99,SE,137,0.0,0.0,96,0.00,,,0.00,Wunderground v.1.15,2013-04-01 06:19:00,
2013-04-01 02:20:00,67.2,66.0,29.99,SE,137,0.0,0.0,96,0.00,,,0.00,Wunderground v.1.15,2013-04-01 06:20:00,
2013-04-01 02:22:00,67.2,66.0,29.99,SE,137,0.0,0.0,96,0.00,,,0.00,Wunderground v.1.15,2013-04-01 06:22:00,
2013-04-01 02:23:00,67.1,65.9,29.98,SE,137,0.0,0.0,96,0.00,,,0.00,Wunderground v.1.15,2013-04-01 06:23:00,
2013-04-01 02:24:00,67.1,65.9,29.98,SE,137,0.0,0.0,96,0.00,,,0.00,Wunderground v.1.15,2013-04-01 06:24:00,
2013-04-01 02:25:00,66.9,65.4,29.98,SE,137,0.0,0.0,95,0.00,,,0.00,Wunderground v.1.15,2013-04-01 06:25:00,
2013-04-01 02:27:00,66.7,65.2,29.98,SE,137,0.0,0.0,95,0.00,,,0.00,Wunderground v.1.15,2013-04-01 06:27:00,
2013-04-01 02:29:00,66.5,65.0,29.98,SE,137,0.0,0.0,95,0.00,,,0.00,Wunderground v.1.15,2013-04-01 06:29:00,
2013-04-01 02:30:00,66.6,65.1,29.98,SE,137,0.0,0.0,95,0.00,,,0.00,Wunderground v.1.15,2013-04-01 06:30:00,
2013-04-01 02:32:00,66.7,65.2,29.98,SE,137,0.0,0.0,95,0.00,,,0.00,Wunderground v.1.15,2013-04-01 06:32:00,
2013-04-01 02:34:00,66.6,65.1,29.98,SE,137,0.0,0.0,95,0.00,,,0.00,Wunderground v.1.15,2013-04-01 06:34:00,
2013-04-01 02:36:00,66.6,65.1,29.98,SE,137,0.0,0.0,95,0.00,,,0.00,Wunderground v.1.15,2013-04-01 06:36:00,
2013-04-01 02:38:00,66.6,65.1,29.98,SE,137,0.0,0.0,95,0.00,,,0.00,Wunderground v.1.15,2013-04-01 06:38:00,
2013-04-01 02:39:00,66.6,65.1,29.98,SE,137,0.0,0.0,95,0.00,,,0.00,Wunderground v.1.15,2013-04-01 06:39:00,
2013-04-01 02:41:00,66.5,65.0,29.98,SE,137,0.0,0.0,95,0.00,,,0.00,Wunderground v.1.15,2013-04-01 06:41:00,
2013-04-01 02:44:00,66.7,65.2,29.98,SE,137,0.0,0.0,95,0.00,,,0.00,Wunderground v.1.15,2013-04-01 06:44:00,
2013-04-01 02:45:00,66.8,65.3,29.98,SE,137,0.0,0.0,95,0.00,,,0.00,Wunderground v.1.15,2013-04-01 06:45:00,
2013-04-01 02:46:00,67.1,65.9,29.98,SE,137,0.0,0.0,96,0.00,,,0.00,Wunderground v.1.15,2013-04-01 06:46:00,
2013-04-01 02:49:00,67.6,66.4,29.98,SE,137,0.0,0.0,96,0.00,,,0.00,Wunderground v.1.15,2013-04-01 06:49:00,
2013-04-01 02:50:00,67.6,66.4,29.98,SE,137,0.0,0.0,96,0.00,,,0.00,Wunderground v.1.15,2013-04-01 06:50:00,
2013-04-01 02:52:00,67.9,66.7,29.97,SE,137,0.0,0.0,96,0.00,,,0.00,Wunderground v.1.15,2013-04-01 06:52:00,
2013-04-01 02:55:00,68.3,67.1,29.97,SE,137,0.0,0.0,96,0.00,,,0.00,Wunderground v.1.15,2013-04-01 06:55:00,
2013-04-01 02:57:00,68.5,67.3,29.97,SE,137,0.0,0.0,96,0.00,,,0.00,Wunderground v.1.15,2013-04-01 06:57:00,
2013-04-01 03:00:00,68.7,67.5,29.97,SE,137,0.0,0.0,96,0.00,,,0.00,Wunderground v.1.15,2013-04-01 07:00:00,
2013-04-01 03:01:00,68.8,67.6,29.97,SE,137,0.0,0.0,96,0.00,,,0.00,Wunderground v.1.15,2013-04-01 07:01:00,
2013-04-01 03:02:00,68.8,67.6,29.97,SE,137,0.0,0.0,96,0.00,,,0.00,Wunderground v.1.15,2013-04-01 07:02:00,
2013-04-01 03:05:00,69.0,67.8,29.97,SE,137,0.0,0.0,96,0.00,,,0.00,Wunderground v.1.15,2013-04-01 07:05:00,
2013-04-01 03:07:00,69.1,67.9,29.97,SE,137,0.0,0.0,96,0.00,,,0.00,Wunderground v.1.15,2013-04-01 07:07:00,
2013-04-01 03:09:00,69.4,67.9,29.97,SE,137,0.0,0.0,95,0.00,,,0.00,Wunderground v.1.15,2013-04-01 07:09:00,
2013-04-01 03:10:00,69.5,68.0,29.97,SE,137,0.0,0.0,95,0.00,,,0.00,Wunderground v.1.15,2013-04-01 07:10:00,
2013-04-01 03:12:00,69.6,68.1,29.97,SSE,154,0.0,0.0,95,0.00,,,0.00,Wunderground v.1.15,2013-04-01 07:12:00,
2013-04-01 03:14:00,69.8,68.3,29.97,SSE,154,0.0,0.0,95,0.00,,,0.00,Wunderground v.1.15,2013-04-01 07:14:00,
2013-04-01 03:15:00,69.8,68.3,29.97,SSE,154,0.0,0.0,95,0.00,,,0.00,Wunderground v.1.15,2013-04-01 07:15:00,
2013-04-01 03:17:00,69.9,68.4,29.97,SSE,154,0.0,0.0,95,0.00,,,0.00,Wunderground v.1.15,2013-04-01 07:17:00,
2013-04-01 03:19:00,70.0,68.2,29.97,SSE,154,0.0,0.0,94,0.00,,,0.00,Wunderground v.1.15,2013-04-01 07:19:00,
2013-04-01 03:20:00,70.1,68.3,29.97,SSE,154,0.0,0.0,94,0.00,,,0.00,Wunderground v.1.15,2013-04-01 07:20:00,
2013-04-01 03:22:00,70.2,68.4,29.97,SSE,154,0.0,0.0,94,0.00,,,0.00,Wunderground v.1.15,2013-04-01 07:22:00,
2013-04-01 03:23:00,70.2,68.4,29.97,SSE,154,0.0,0.0,94,0.00,,,0.00,Wunderground v.1.15,2013-04-01 07:23:00,
2013-04-01 03:24:00,70.3,68.5,29.97,SSE,155,0.0,0.0,94,0.00,,,0.00,Wunderground v.1.15,2013-04-01 07:24:00,
2013-04-01 03:26:00,70.3,68.5,29.97,SSE,155,0.0,0.0,94,0.00,,,0.00,Wunderground v.1.15,2013-04-01 07:26:00,
2013-04-01 03:28:00,70.4,68.3,29.97,SSE,155,0.0,0.0,93,0.00,,,0.00,Wunderground v.1.15,2013-04-01 07:28:00,
2013-04-01 03:30:00,70.4,68.3,29.97,SSE,155,0.0,0.0,93,0.00,,,0.00,Wunderground v.1.15,2013-04-01 07:30:00,
2013-04-01 03:31:00,70.4,68.3,29.97,SSE,155,0.0,0.0,93,0.00,,,0.00,Wunderground v.1.15,2013-04-01 07:31:00,
2013-04-01 03:33:00,70.5,68.4,29.97,SSE,155,0.0,0.0,93,0.00,,,0.00,Wunderground v.1.15,2013-04-01 07:33:00,
2013-04-01 03:35:00,70.5,68.1,29.98,SSE,155,0.0,0.0,92,0.00,,,0.00,Wunderground v.1.15,2013-04-01 07:35:00,
2013-04-01 03:37:00,70.6,68.2,29.97,SSE,155,0.0,0.0,92,0.00,,,0.00,Wunderground v.1.15,2013-04-01 07:37:00,
2013-04-01 03:38:00,70.6,68.2,29.97,SSE,155,0.0,0.0,92,0.00,,,0.00,Wunderground v.1.15,2013-04-01 07:38:00,
2013-04-01 03:40:00,70.6,68.2,29.97,SSE,155,0.0,0.0,92,0.00,,,0.00,Wunderground v.1.15,2013-04-01 07:40:00,
2013-04-01 03:42:00,70.6,68.2,29.97,SSE,155,0.0,0.0,92,0.00,,,0.00,Wunderground v.1.15,2013-04-01 07:42:00,
2013-04-01 03:44:00,70.7,68.3,29.97,SSE,155,0.0,0.0,92,0.00,,,0.00,Wunderground v.1.15,2013-04-01 07:44:00,
2013-04-01 03:45:00,70.8,68.4,29.97,SSE,155,0.0,0.0,92,0.00,,,0.00,Wunderground v.1.15,2013-04-01 07:45:00,
2013-04-01 03:47:00,70.8,68.4,29.97,SSE,155,0.0,0.0,92,0.00,,,0.00,Wunderground v.1.15,2013-04-01 07:47:00,
2013-04-01 03:49:00,70.8,68.4,29.97,SSE,155,0.0,0.0,92,0.00,,,0.00,Wunderground v.1.15,2013-04-01 07:49:00,
2013-04-01 03:50:00,70.9,68.5,29.97,SSE,155,0.0,0.0,92,0.00,,,0.00,Wunderground v.1.15,2013-04-01 07:50:00,
2013-04-01 03:52:00,70.8,68.0,29.97,SSE,155,0.0,0.0,91,0.00,,,0.00,Wunderground v.1.15,2013-04-01 07:52:00,
2013-04-01 03:54:00,70.8,68.0,29.97,SSE,155,0.0,0.0,91,0.00,,,0.00,Wunderground v.1.15,2013-04-01 07:54:00,
2013-04-01 03:55:00,70.9,68.1,29.97,SSE,155,0.0,0.0,91,0.00,,,0.00,Wunderground v.1.15,2013-04-01 07:55:00,
2013-04-01 03:58:00,70.8,68.0,29.97,SSE,155,0.0,0.0,91,0.00,,,0.00,Wunderground v.1.15,2013-04-01 07:58:00,
2013-04-01 03:59:00,70.8,68.0,29.97,SSE,155,0.0,0.0,91,0.00,,,0.00,Wunderground v.1.15,2013-04-01 07:59:00,
2013-04-01 04:00:00,70.8,68.0,29.97,SSE,155,0.0,0.0,91,0.00,,,0.00,Wunderground v.1.15,2013-04-01 08:00:00,
2013-04-01 04:03:00,70.7,67.9,29.97,SSE,155,0.0,0.0,91,0.00,,,0.00,Wunderground v.1.15,2013-04-01 08:03:00,
2013-04-01 04:04:00,70.7,67.9,29.97,SSE,155,0.0,0.0,91,0.00,,,0.00,Wunderground v.1.15,2013-04-01 08:04:00,
2013-04-01 04:05:00,70.6,67.8,29.97,SSE,155,0.0,0.0,91,0.00,,,0.00,Wunderground v.1.15,2013-04-01 08:05:00,
2013-04-01 04:09:00,70.5,67.7,29.97,SSE,155,0.0,0.0,91,0.00,,,0.00,Wunderground v.1.15,2013-04-01 08:09:00,
2013-04-01 04:11:00,70.4,67.6,29.97,SSE,155,0.0,0.0,91,0.00,,,0.00,Wunderground v.1.15,2013-04-01 08:11:00,
2013-04-01 04:14:00,70.3,67.5,29.97,SSE,155,0.0,0.0,91,0.00,,,0.00,Wunderground v.1.15,2013-04-01 08:14:00,
2013-04-01 04:16:00,70.3,67.5,29.97,SSE,155,0.0,0.0,91,0.00,,,0.00,Wunderground v.1.15,2013-04-01 08:16:00,
2013-04-01 04:17:00,70.3,67.5,29.97,SSE,155,0.0,0.0,91,0.00,,,0.00,Wunderground v.1.15,2013-04-01 08:17:00,
2013-04-01 04:19:00,70.3,67.5,29.97,SSE,155,0.0,0.0,91,0.00,,,0.00,Wunderground v.1.15,2013-04-01 08:19:00,
2013-04-01 04:20:00,70.2,67.4,29.97,SSE,155,0.0,0.0,91,0.00,,,0.00,Wunderground v.1.15,2013-04-01 08:20:00,
2013-04-01 04:21:00,70.1,67.3,29.97,SSE,155,0.0,0.0,91,0.00,,,0.00,Wunderground v.1.15,2013-04-01 08:21:00,
2013-04-01 04:22:00,70.1,67.3,29.97,SSE,155,0.0,0.0,91,0.00,,,0.00,Wunderground v.1.15,2013-04-01 08:22:00,
2013-04-01 04:24:00,69.8,67.1,29.97,SSE,155,0.0,0.0,91,0.00,,,0.00,Wunderground v.1.15,2013-04-01 08:24:00,
2013-04-01 04:25:00,69.7,67.0,29.97,SSE,155,0.0,0.0,91,0.00,,,0.00,Wunderground v.1.15,2013-04-01 08:25:00,
2013-04-01 04:27:00,69.6,66.9,29.96,SSE,155,0.0,0.0,91,0.00,,,0.00,Wunderground v.1.15,2013-04-01 08:27:00,
2013-04-01 04:29:00,69.5,67.1,29.97,SSE,155,0.0,0.0,92,0.00,,,0.00,Wunderground v.1.15,2013-04-01 08:29:00,
2013-04-01 04:31:00,69.4,67.0,29.97,SSE,155,0.0,0.0,92,0.00,,,0.00,Wunderground v.1.15,2013-04-01 08:31:00,
2013-04-01 04:32:00,69.4,67.0,29.96,SSE,155,0.0,0.0,92,0.00,,,0.00,Wunderground v.1.15,2013-04-01 08:32:00,
2013-04-01 04:33:00,69.4,67.0,29.96,SSE,155,0.0,0.0,92,0.00,,,0.00,Wunderground v.1.15,2013-04-01 08:33:00,
2013-04-01 04:35:00,69.4,67.0,29.96,SSE,155,0.0,0.0,92,0.00,,,0.00,Wunderground v.1.15,2013-04-01 08:35:00,
2013-04-01 04:36:00,69.4,67.0,29.96,SSE,155,0.0,0.0,92,0.00,,,0.00,Wunderground v.1.15,2013-04-01 08:36:00,
2013-04-01 04:37:00,69.5,67.1,29.96,SSE,155,0.0,0.0,92,0.00,,,0.00,Wunderground v.1.15,2013-04-01 08:37:00,
2013-04-01 04:39:00,69.5,67.4,29.96,SSE,155,0.0,0.0,93,0.00,,,0.00,Wunderground v.1.15,2013-04-01 08:39:00,
2013-04-01 04:40:00,69.5,67.4,29.96,SSE,155,0.0,0.0,93,0.00,,,0.00,Wunderground v.1.15,2013-04-01 08:40:00,
2013-04-01 04:41:00,69.5,67.4,29.96,SSE,155,0.0,0.0,93,0.00,,,0.00,Wunderground v.1.15,2013-04-01 08:41:00,
2013-04-01 04:42:00,69.5,67.4,29.96,SSE,155,0.0,0.0,93,0.00,,,0.00,Wunderground v.1.15,2013-04-01 08:42:00,
2013-04-01 04:45:00,69.6,67.5,29.96,SSE,155,0.0,0.0,93,0.00,,,0.00,Wunderground v.1.15,2013-04-01 08:45:00,
2013-04-01 04:46:00,69.7,67.6,29.96,SSE,155,0.0,0.0,93,0.00,,,0.00,Wunderground v.1.15,2013-04-01 08:46:00,
2013-04-01 04:48:00,69.8,67.7,29.96,SSE,155,0.0,0.0,93,0.00,,,0.00,Wunderground v.1.15,2013-04-01 08:48:00,
2013-04-01 04:50:00,69.8,67.7,29.96,SSE,155,0.0,0.0,93,0.00,,,0.00,Wunderground v.1.15,2013-04-01 08:50:00,
2013-04-01 04:51:00,69.8,67.7,29.96,SSE,155,0.0,0.0,93,0.00,,,0.00,Wunderground v.1.15,2013-04-01 08:51:00,
2013-04-01 04:54:00,69.9,67.8,29.96,SSE,155,0.0,0.0,93,0.00,,,0.00,Wunderground v.1.15,2013-04-01 08:54:00,
2013-04-01 04:55:00,69.9,67.8,29.96,SSE,155,0.0,0.0,93,0.00,,,0.00,Wunderground v.1.15,2013-04-01 08:55:00,
2013-04-01 04:56:00,69.9,67.8,29.96,SSE,155,0.0,0.0,93,0.00,,,0.00,Wunderground v.1.15,2013-04-01 08:56:00,
2013-04-01 04:59:00,70.0,67.9,29.96,SSE,155,0.0,0.0,93,0.00,,,0.00,Wunderground v.1.15,2013-04-01 08:59:00,
2013-04-01 05:00:00,70.0,67.9,29.96,SSE,155,0.0,0.0,93,0.00,,,0.00,Wunderground v.1.15,2013-04-01 09:00:00,
2013-04-01 05:02:00,70.0,67.9,29.97,SSE,155,0.0,0.0,93,0.00,,,0.00,Wunderground v.1.15,2013-04-01 09:02:00,
2013-04-01 05:04:00,70.1,68.0,29.96,SSE,155,0.0,0.0,93,0.00,,,0.00,Wunderground v.1.15,2013-04-01 09:04:00,
2013-04-01 05:06:00,70.2,68.1,29.96,SSE,155,0.0,0.0,93,0.00,,,0.00,Wunderground v.1.15,2013-04-01 09:06:00,
2013-04-01 05:07:00,70.2,68.1,29.96,SSE,155,0.0,0.0,93,0.00,,,0.00,Wunderground v.1.15,2013-04-01 09:07:00,
2013-04-01 05:09:00,70.3,68.2,29.96,SSE,155,0.0,0.0,93,0.00,,,0.00,Wunderground v.1.15,2013-04-01 09:09:00,
2013-04-01 05:12:00,70.4,68.3,29.96,SSE,155,0.0,0.0,93,0.00,,,0.00,Wunderground v.1.15,2013-04-01 09:12:00,
2013-04-01 05:13:00,70.4,68.3,29.97,SSE,155,0.0,0.0,93,0.00,,,0.00,Wunderground v.1.15,2013-04-01 09:13:00,
2013-04-01 05:14:00,70.5,68.4,29.97,SSE,155,0.0,0.0,93,0.00,,,0.00,Wunderground v.1.15,2013-04-01 09:14:00,
2013-04-01 05:17:00,70.4,68.0,29.97,SSE,155,0.0,0.0,92,0.00,,,0.00,Wunderground v.1.15,2013-04-01 09:17:00,
2013-04-01 05:18:00,70.5,68.1,29.97,SSE,155,0.0,0.0,92,0.00,,,0.00,Wunderground v.1.15,2013-04-01 09:18:00,
2013-04-01 05:19:00,70.5,68.1,29.97,SSE,155,0.0,0.0,92,0.00,,,0.00,Wunderground v.1.15,2013-04-01 09:19:00,
2013-04-01 05:23:00,70.4,68.0,29.96,SSE,155,0.0,0.0,92,0.00,,,0.00,Wunderground v.1.15,2013-04-01 09:23:00,
2013-04-01 05:24:00,70.4,68.0,29.97,SSE,155,0.0,0.0,92,0.00,,,0.00,Wunderground v.1.15,2013-04-01 09:24:00,
2013-04-01 05:25:00,70.4,68.0,29.97,SSE,155,0.0,0.0,92,0.00,,,0.00,Wunderground v.1.15,2013-04-01 09:25:00,
2013-04-01 05:29:00,70.4,68.0,29.97,SSE,155,0.0,0.0,92,0.00,,,0.00,Wunderground v.1.15,2013-04-01 09:29:00,
2013-04-01 05:30:00,70.4,68.0,29.97,SSE,155,0.0,0.0,92,0.00,,,0.00,Wunderground v.1.15,2013-04-01 09:30:00,
2013-04-01 05:34:00,70.3,67.9,29.97,SSE,155,0.0,0.0,92,0.00,,,0.00,Wunderground v.1.15,2013-04-01 09:34:00,
2013-04-01 05:35:00,70.3,67.9,29.97,SSE,155,0.0,0.0,92,0.00,,,0.00,Wunderground v.1.15,2013-04-01 09:35:00,
2013-04-01 05:36:00,70.3,67.9,29.97,SSE,155,0.0,0.0,92,0.00,,,0.00,Wunderground v.1.15,2013-04-01 09:36:00,
2013-04-01 05:39:00,70.4,68.3,29.97,SSE,155,0.0,0.0,93,0.00,,,0.00,Wunderground v.1.15,2013-04-01 09:39:00,
2013-04-01 05:40:00,70.4,68.3,29.97,SSE,155,0.0,0.0,93,0.00,,,0.00,Wunderground v.1.15,2013-04-01 09:40:00,
2013-04-01 05:41:00,70.4,68.3,29.97,SSE,155,0.0,0.0,93,0.00,,,0.00,Wunderground v.1.15,2013-04-01 09:41:00,
2013-04-01 05:44:00,70.4,68.3,29.97,SSE,155,0.0,0.0,93,0.00,,,0.00,Wunderground v.1.15,2013-04-01 09:44:00,
2013-04-01 05:45:00,70.4,68.3,29.97,SSE,155,0.0,0.0,93,0.00,,,0.00,Wunderground v.1.15,2013-04-01 09:45:00,
2013-04-01 05:46:00,70.3,68.2,29.97,SSE,155,0.0,0.0,93,0.00,,,0.00,Wunderground v.1.15,2013-04-01 09:46:00,
2013-04-01 05:47:00,70.3,68.2,29.97,SSE,155,0.0,0.0,93,0.00,,,0.00,Wunderground v.1.15,2013-04-01 09:47:00,
2013-04-01 05:49:00,70.3,68.2,29.97,SSE,155,0.0,0.0,93,0.00,,,0.00,Wunderground v.1.15,2013-04-01 09:49:00,
2013-04-01 05:51:00,70.2,68.1,29.97,SSE,155,0.0,0.0,93,0.00,,,0.00,Wunderground v.1.15,2013-04-01 09:51:00,
2013-04-01 05:52:00,70.2,68.1,29.97,SSE,155,0.0,0.0,93,0.00,,,0.00,Wunderground v.1.15,2013-04-01 09:52:00,
2013-04-01 05:54:00,70.3,68.2,29.97,SSE,155,0.0,0.0,93,0.00,,,0.00,Wunderground v.1.15,2013-04-01 09:54:00,
2013-04-01 05:56:00,70.3,68.2,29.97,SSE,155,0.0,0.0,93,0.00,,,0.00,Wunderground v.1.15,2013-04-01 09:56:00,
2013-04-01 05:57:00,70.3,68.2,29.97,SSE,155,0.0,0.0,93,0.00,,,0.00,Wunderground v.1.15,2013-04-01 09:57:00,
2013-04-01 05:58:00,70.3,68.2,29.97,SSE,155,0.0,0.0,93,0.00,,,0.00,Wunderground v.1.15,2013-04-01 09:58:00,
2013-04-01 06:00:00,70.3,68.2,29.97,SSE,155,0.0,0.0,93,0.00,,,0.00,Wunderground v.1.15,2013-04-01 10:00:00,
2013-04-01 06:02:00,70.3,68.2,29.97,SSE,155,0.0,0.0,93,0.00,,,0.00,Wunderground v.1.15,2013-04-01 10:02:00,
2013-04-01 06:03:00,70.3,68.2,29.97,SSE,155,0.0,0.0,93,0.00,,,0.00,Wunderground v.1.15,2013-04-01 10:03:00,
2013-04-01 06:04:00,70.3,68.2,29.97,SSE,155,0.0,0.0,93,0.00,,,0.00,Wunderground v.1.15,2013-04-01 10:04:00,
2013-04-01 06:05:00,70.3,68.2,29.97,SSE,155,0.0,0.0,93,0.00,,,0.00,Wunderground v.1.15,2013-04-01 10:05:00,
2013-04-01 06:07:00,70.3,68.2,29.97,SSE,155,0.0,0.0,93,0.00,,,0.00,Wunderground v.1.15,2013-04-01 10:07:00,
2013-04-01 06:09:00,70.3,68.2,29.97,SSE,155,0.0,0.0,93,0.00,,,0.00,Wunderground v.1.15,2013-04-01 10:09:00,
2013-04-01 06:10:00,70.3,68.2,29.97,SSE,155,0.0,0.0,93,0.00,,,0.00,Wunderground v.1.15,2013-04-01 10:10:00,
2013-04-01 06:13:00,70.3,68.2,29.97,SSE,155,0.0,0.0,93,0.00,,,0.00,Wunderground v.1.15,2013-04-01 10:13:00,
2013-04-01 06:14:00,70.3,68.2,29.97,SSE,155,0.0,0.0,93,0.00,,,0.00,Wunderground v.1.15,2013-04-01 10:14:00,
2013-04-01 06:17:00,70.4,68.3,29.97,SSE,155,0.0,0.0,93,0.00,,,0.00,Wunderground v.1.15,2013-04-01 10:17:00,
2013-04-01 06:19:00,70.4,68.3,29.97,SSE,155,0.0,0.0,93,0.00,,,0.00,Wunderground v.1.15,2013-04-01 10:19:00,
2013-04-01 06:22:00,70.4,68.3,29.97,SSE,155,0.0,0.0,93,0.00,,,0.00,Wunderground v.1.15,2013-04-01 10:22:00,
2013-04-01 06:24:00,70.4,68.3,29.97,SSE,155,0.0,0.0,93,0.00,,,0.00,Wunderground v.1.15,2013-04-01 10:24:00,
2013-04-01 06:27:00,70.3,68.2,29.97,SSE,155,0.0,0.0,93,0.00,,,0.00,Wunderground v.1.15,2013-04-01 10:27:00,
2013-04-01 06:28:00,70.3,68.2,29.97,SSE,155,0.0,0.0,93,0.00,,,0.00,Wunderground v.1.15,2013-04-01 10:28:00,
2013-04-01 06:29:00,70.3,68.2,29.97,SSE,155,0.0,0.0,93,0.00,,,0.00,Wunderground v.1.15,2013-04-01 10:29:00,
2013-04-01 06:32:00,70.2,68.1,29.97,SSE,155,0.0,0.0,93,0.00,,,0.00,Wunderground v.1.15,2013-04-01 10:32:00,
2013-04-01 06:33:00,70.2,68.1,29.97,SSE,155,0.0,0.0,93,0.00,,,0.00,Wunderground v.1.15,2013-04-01 10:33:00,
2013-04-01 06:34:00,70.2,68.1,29.97,SSE,155,0.0,0.0,93,0.00,,,0.00,Wunderground v.1.15,2013-04-01 10:34:00,
2013-04-01 06:35:00,70.2,68.1,29.97,SSE,155,0.0,0.0,93,0.00,,,0.00,Wunderground v.1.15,2013-04-01 10:35:00,
2013-04-01 06:37:00,70.1,68.0,29.97,SSE,155,0.0,0.0,93,0.00,,,0.00,Wunderground v.1.15,2013-04-01 10:37:00,
2013-04-01 06:39:00,70.1,68.0,29.97,SSE,155,0.0,0.0,93,0.00,,,0.00,Wunderground v.1.15,2013-04-01 10:39:00,
2013-04-01 06:40:00,70.2,68.1,29.97,SSE,155,0.0,0.0,93,0.00,,,0.00,Wunderground v.1.15,2013-04-01 10:40:00,
2013-04-01 06:42:00,70.2,68.1,29.97,SSE,155,0.0,0.0,93,0.00,,,0.00,Wunderground v.1.15,2013-04-01 10:42:00,
2013-04-01 06:44:00,70.2,68.1,29.98,SSE,155,0.0,0.0,93,0.00,,,0.00,Wunderground v.1.15,2013-04-01 10:44:00,
2013-04-01 06:45:00,70.1,68.0,29.98,SSE,155,0.0,0.0,93,0.00,,,0.00,Wunderground v.1.15,2013-04-01 10:45:00,
2013-04-01 06:48:00,70.0,68.2,29.98,SSE,155,0.0,0.0,94,0.00,,,0.00,Wunderground v.1.15,2013-04-01 10:48:00,
2013-04-01 06:49:00,70.1,68.3,29.98,SSE,155,0.0,0.0,94,0.00,,,0.00,Wunderground v.1.15,2013-04-01 10:49:00,
2013-04-01 06:50:00,70.0,68.2,29.98,SSE,155,0.0,0.0,94,0.00,,,0.00,Wunderground v.1.15,2013-04-01 10:50:00,
2013-04-01 06:54:00,70.1,68.3,29.98,SSE,155,0.0,0.0,94,0.00,,,0.00,Wunderground v.1.15,2013-04-01 10:54:00,
2013-04-01 06:55:00,70.1,68.3,29.98,SSE,155,0.0,0.0,94,0.00,,,0.00,Wunderground v.1.15,2013-04-01 10:55:00,
2013-04-01 06:56:00,70.1,68.3,29.98,SSE,155,0.0,0.0,94,0.00,,,0.00,Wunderground v.1.15,2013-04-01 10:56:00,
2013-04-01 06:59:00,70.1,68.3,29.97,SSE,155,0.0,0.0,94,0.00,,,0.00,Wunderground v.1.15,2013-04-01 10:59:00,
2013-04-01 07:00:00,70.1,68.3,29.97,SSE,155,0.0,0.0,94,0.00,,,0.00,Wunderground v.1.15,2013-04-01 11:00:00,
2013-04-01 07:02:00,70.1,68.3,29.97,SSE,155,0.0,0.0,94,0.00,,,0.00,Wunderground v.1.15,2013-04-01 11:02:00,
2013-04-01 07:04:00,70.2,68.4,29.97,SSE,155,0.0,0.0,94,0.00,,,0.00,Wunderground v.1.15,2013-04-01 11:04:00,
2013-04-01 07:05:00,70.2,68.4,29.98,SSE,156,0.0,0.0,94,0.00,,,0.00,Wunderground v.1.15,2013-04-01 11:05:00,
2013-04-01 07:08:00,70.2,68.4,29.98,SSE,156,0.0,0.0,94,0.00,,,0.00,Wunderground v.1.15,2013-04-01 11:08:00,
2013-04-01 07:09:00,70.2,68.4,29.97,SSE,156,0.0,0.0,94,0.00,,,0.00,Wunderground v.1.15,2013-04-01 11:09:00,
2013-04-01 07:10:00,70.2,68.4,29.97,SSE,156,0.0,0.0,94,0.00,,,0.00,Wunderground v.1.15,2013-04-01 11:10:00,
2013-04-01 07:13:00,70.2,68.1,29.98,SSE,156,0.0,0.0,93,0.00,,,0.00,Wunderground v.1.15,2013-04-01 11:13:00,
2013-04-01 07:14:00,70.2,68.1,29.98,SSE,156,0.0,0.0,93,0.00,,,0.00,Wunderground v.1.15,2013-04-01 11:14:00,
2013-04-01 07:15:00,70.3,68.2,29.98,SSE,156,0.0,0.0,93,0.00,,,0.00,Wunderground v.1.15,2013-04-01 11:15:00,
2013-04-01 07:16:00,70.3,68.2,29.98,SSE,156,0.0,0.0,93,0.00,,,0.00,Wunderground v.1.15,2013-04-01 11:16:00,
2013-04-01 07:19:00,70.3,68.2,29.98,SSE,157,0.0,0.0,93,0.00,,,0.00,Wunderground v.1.15,2013-04-01 11:19:00,
2013-04-01 07:20:00,70.3,68.2,29.98,SSE,157,0.0,0.0,93,0.00,,,0.00,Wunderground v.1.15,2013-04-01 11:20:00,
2013-04-01 07:22:00,70.4,68.3,29.98,SSE,158,0.0,0.0,93,0.00,,,0.00,Wunderground v.1.15,2013-04-01 11:22:00,
2013-04-01 07:25:00,70.4,68.3,29.98,SSE,158,0.0,0.0,93,0.00,,,0.00,Wunderground v.1.15,2013-04-01 11:25:00,
2013-04-01 07:28:00,70.5,68.4,29.98,SSE,158,0.0,0.0,93,0.00,,,0.00,Wunderground v.1.15,2013-04-01 11:28:00,
2013-04-01 07:30:00,70.6,68.5,29.98,SSE,158,0.0,0.0,93,0.00,,,0.00,Wunderground v.1.15,2013-04-01 11:30:00,
2013-04-01 07:31:00,70.6,68.5,29.98,SSE,158,0.0,0.0,93,0.00,,,0.00,Wunderground v.1.15,2013-04-01 11:31:00,
2013-04-01 07:33:00,70.6,68.5,29.98,SSE,158,0.0,0.0,93,0.00,,,0.00,Wunderground v.1.15,2013-04-01 11:33:00,
2013-04-01 07:35:00,70.7,68.3,29.98,SSE,158,0.0,0.0,92,0.00,,,0.00,Wunderground v.1.15,2013-04-01 11:35:00,
2013-04-01 07:36:00,70.7,68.3,29.98,SSE,158,0.0,0.0,92,0.00,,,0.00,Wunderground v.1.15,2013-04-01 11:36:00,
2013-04-01 07:38:00,70.8,68.4,29.98,SSE,158,0.0,0.0,92,0.00,,,0.00,Wunderground v.1.15,2013-04-01 11:38:00,
2013-04-01 07:40:00,70.9,68.5,29.98,SSE,158,0.0,0.0,92,0.00,,,0.00,Wunderground v.1.15,2013-04-01 11:40:00,
2013-04-01 07:41:00,70.9,68.5,29.98,SSE,158,0.0,0.0,92,0.00,,,0.00,Wunderground v.1.15,2013-04-01 11:41:00,
2013-04-01 07:43:00,70.9,68.5,29.98,SSE,158,0.0,0.0,92,0.00,,,0.00,Wunderground v.1.15,2013-04-01 11:43:00,
2013-04-01 07:46:00,71.0,68.6,29.99,SSE,158,0.0,0.0,92,0.00,,,0.00,Wunderground v.1.15,2013-04-01 11:46:00,
2013-04-01 07:48:00,71.1,68.7,29.99,SSE,158,0.0,0.0,92,0.00,,,0.00,Wunderground v.1.15,2013-04-01 11:48:00,
2013-04-01 07:51:00,71.2,68.8,29.99,SSE,158,0.0,0.0,92,0.00,,,0.00,Wunderground v.1.15,2013-04-01 11:51:00,
2013-04-01 07:52:00,71.3,68.9,29.99,SSE,158,0.0,0.0,92,0.00,,,0.00,Wunderground v.1.15,2013-04-01 11:52:00,
2013-04-01 07:53:00,71.3,68.9,29.99,SSE,158,0.0,0.0,92,0.00,,,0.00,Wunderground v.1.15,2013-04-01 11:53:00,
2013-04-01 07:54:00,71.3,68.9,29.99,SSE,158,0.0,0.0,92,0.00,,,0.00,Wunderground v.1.15,2013-04-01 11:54:00,
2013-04-01 07:56:00,71.5,69.1,29.99,SSE,158,0.0,0.0,92,0.00,,,0.00,Wunderground v.1.15,2013-04-01 11:56:00,
2013-04-01 07:58:00,71.5,69.1,29.99,SSE,158,0.0,0.0,92,0.00,,,0.00,Wunderground v.1.15,2013-04-01 11:58:00,
2013-04-01 07:59:00,71.6,69.2,29.99,SSE,158,0.0,0.0,92,0.00,,,0.00,Wunderground v.1.15,2013-04-01 11:59:00,
2013-04-01 08:00:00,71.7,69.3,29.99,SSE,158,0.0,0.0,92,0.00,,,0.00,Wunderground v.1.15,2013-04-01 12:00:00,
2013-04-01 08:02:00,71.8,69.0,30.00,SSE,158,0.0,0.0,91,0.00,,,0.00,Wunderground v.1.15,2013-04-01 12:02:00,
2013-04-01 08:03:00,71.8,69.0,30.00,SSE,158,0.0,0.0,91,0.00,,,0.00,Wunderground v.1.15,2013-04-01 12:03:00,
2013-04-01 08:04:00,71.9,69.1,30.00,SSE,158,0.0,0.0,91,0.00,,,0.00,Wunderground v.1.15,2013-04-01 12:04:00,
2013-04-01 08:05:00,71.9,69.1,30.00,SSE,158,0.0,0.0,91,0.00,,,0.00,Wunderground v.1.15,2013-04-01 12:05:00,
2013-04-01 08:07:00,72.0,69.2,30.00,SSE,158,0.0,0.0,91,0.00,,,0.00,Wunderground v.1.15,2013-04-01 12:07:00,
2013-04-01 08:08:00,72.0,69.2,30.00,SSE,158,0.0,0.0,91,0.00,,,0.00,Wunderground v.1.15,2013-04-01 12:08:00,
2013-04-01 08:09:00,72.1,69.3,30.00,SSE,158,0.0,0.0,91,0.00,,,0.00,Wunderground v.1.15,2013-04-01 12:09:00,
2013-04-01 08:11:00,72.1,69.3,30.00,SSE,158,0.0,0.0,91,0.00,,,0.00,Wunderground v.1.15,2013-04-01 12:11:00,
2013-04-01 08:12:00,72.1,69.3,30.00,SSE,158,0.0,0.0,91,0.00,,,0.00,Wunderground v.1.15,2013-04-01 12:12:00,
2013-04-01 08:14:00,72.3,69.5,30.00,SSE,158,0.0,0.0,91,0.00,,,0.00,Wunderground v.1.15,2013-04-01 12:14:00,
2013-04-01 08:17:00,72.5,69.7,30.00,SSE,158,0.0,0.0,91,0.00,,,0.00,Wunderground v.1.15,2013-04-01 12:17:00,
2013-04-01 08:19:00,72.6,69.8,30.00,SSE,158,0.0,0.0,91,0.00,,,0.00,Wunderground v.1.15,2013-04-01 12:19:00,
2013-04-01 08:20:00,72.6,69.8,30.00,SSE,158,0.0,0.0,91,0.00,,,0.00,Wunderground v.1.15,2013-04-01 12:20:00,
2013-04-01 08:22:00,72.7,69.9,30.00,SSE,158,0.0,0.0,91,0.00,,,0.00,Wunderground v.1.15,2013-04-01 12:22:00,
2013-04-01 08:23:00,72.7,69.9,30.00,SSE,158,0.0,0.0,91,0.00,,,0.00,Wunderground v.1.15,2013-04-01 12:23:00,
2013-04-01 08:24:00,72.9,70.1,30.00,SSE,158,0.0,0.0,91,0.00,,,0.00,Wunderground v.1.15,2013-04-01 12:24:00,
2013-04-01 08:25:00,73.0,70.2,30.00,SSE,158,0.0,0.0,91,0.00,,,0.00,Wunderground v.1.15,2013-04-01 12:25:00,
2013-04-01 08:27:00,73.2,70.4,30.00,SSE,158,0.0,0.0,91,0.00,,,0.00,Wunderground v.1.15,2013-04-01 12:27:00,
2013-04-01 08:28:00,73.2,70.1,30.00,SSE,158,0.0,0.0,90,0.00,,,0.00,Wunderground v.1.15,2013-04-01 12:28:00,
2013-04-01 08:30:00,73.3,70.2,30.01,SSE,158,0.0,0.0,90,0.00,,,0.00,Wunderground v.1.15,2013-04-01 12:30:00,
2013-04-01 08:32:00,73.3,70.2,30.01,SSE,161,0.0,0.0,90,0.00,,,0.00,Wunderground v.1.15,2013-04-01 12:32:00,
2013-04-01 08:33:00,73.4,70.3,30.01,SSE,161,0.0,0.0,90,0.00,,,0.00,Wunderground v.1.15,2013-04-01 12:33:00,
2013-04-01 08:35:00,73.5,70.4,30.01,SSE,161,0.0,0.0,90,0.00,,,0.00,Wunderground v.1.15,2013-04-01 12:35:00,
2013-04-01 08:37:00,73.7,70.6,30.01,South,169,0.0,0.0,90,0.00,,,0.00,Wunderground v.1.15,2013-04-01 12:37:00,
2013-04-01 08:38:00,73.8,70.7,30.01,South,169,0.0,0.0,90,0.00,,,0.00,Wunderground v.1.15,2013-04-01 12:38:00,
2013-04-01 08:40:00,73.9,70.8,30.01,SSE,154,0.0,0.0,90,0.00,,,0.00,Wunderground v.1.15,2013-04-01 12:40:00,
2013-04-01 08:41:00,73.9,70.8,30.01,SSE,154,0.0,0.0,90,0.00,,,0.00,Wunderground v.1.15,2013-04-01 12:41:00,
2013-04-01 08:43:00,74.0,70.6,30.01,SSE,154,0.0,0.0,89,0.00,,,0.00,Wunderground v.1.15,2013-04-01 12:43:00,
2013-04-01 08:46:00,74.2,71.1,30.02,SSE,155,0.0,0.0,90,0.00,,,0.00,Wunderground v.1.15,2013-04-01 12:46:00,
2013-04-01 08:48:00,74.8,71.7,30.02,South,184,0.0,0.0,90,0.00,,,0.00,Wunderground v.1.15,2013-04-01 12:48:00,
2013-04-01 08:49:00,75.1,71.6,30.02,SSW,194,0.0,0.0,89,0.00,,,0.00,Wunderground v.1.15,2013-04-01 12:49:00,
2013-04-01 08:51:00,75.2,71.4,30.02,SSW,199,0.0,0.0,88,0.00,,,0.00,Wunderground v.1.15,2013-04-01 12:51:00,
2013-04-01 08:54:00,75.0,71.2,30.02,South,170,0.0,0.0,88,0.00,,,0.00,Wunderground v.1.15,2013-04-01 12:54:00,
2013-04-01 08:56:00,74.8,71.0,30.02,South,172,0.0,0.0,88,0.00,,,0.00,Wunderground v.1.15,2013-04-01 12:56:00,
2013-04-01 08:57:00,74.8,71.0,30.02,South,183,0.0,0.0,88,0.00,,,0.00,Wunderground v.1.15,2013-04-01 12:57:00,
2013-04-01 08:59:00,74.9,71.1,30.02,SSE,156,0.0,0.0,88,0.00,,,0.00,Wunderground v.1.15,2013-04-01 12:59:00,
2013-04-01 09:02:00,74.9,71.1,30.02,SSE,165,0.0,0.0,88,0.00,,,0.00,Wunderground v.1.15,2013-04-01 13:02:00,
2013-04-01 09:05:00,75.1,71.0,30.02,South,172,0.0,0.0,87,0.00,,,0.00,Wunderground v.1.15,2013-04-01 13:05:00,
2013-04-01 09:07:00,75.2,71.1,30.02,South,170,0.0,0.0,87,0.00,,,0.00,Wunderground v.1.15,2013-04-01 13:07:00,
2013-04-01 09:08:00,75.2,71.1,30.02,South,175,0.0,0.0,87,0.00,,,0.00,Wunderground v.1.15,2013-04-01 13:08:00,
2013-04-01 09:10:00,75.3,71.2,30.02,SSE,153,0.0,0.0,87,0.00,,,0.00,Wunderground v.1.15,2013-04-01 13:10:00,
2013-04-01 09:12:00,75.4,70.9,30.02,SSE,165,0.0,4.0,86,0.00,,,0.00,Wunderground v.1.15,2013-04-01 13:12:00,
2013-04-01 09:13:00,75.4,70.9,30.02,South,169,0.0,4.0,86,0.00,,,0.00,Wunderground v.1.15,2013-04-01 13:13:00,
2013-04-01 09:14:00,75.4,70.6,30.02,SSE,166,6.0,8.0,85,0.00,,,0.00,Wunderground v.1.15,2013-04-01 13:14:00,
2013-04-01 09:15:00,75.4,70.6,30.02,South,170,4.0,8.0,85,0.00,,,0.00,Wunderground v.1.15,2013-04-01 13:15:00,
2013-04-01 09:18:00,75.6,70.8,30.02,SSE,164,1.0,8.0,85,0.00,,,0.00,Wunderground v.1.15,2013-04-01 13:18:00,
2013-04-01 09:19:00,75.7,70.9,30.02,South,169,4.0,8.0,85,0.00,,,0.00,Wunderground v.1.15,2013-04-01 13:19:00,
2013-04-01 09:20:00,75.8,70.6,30.02,SSE,167,0.0,8.0,84,0.00,,,0.00,Wunderground v.1.15,2013-04-01 13:20:00,
2013-04-01 09:23:00,76.1,70.6,30.02,South,170,0.0,9.0,83,0.00,,,0.00,Wunderground v.1.15,2013-04-01 13:23:00,
2013-04-01 09:25:00,76.3,71.1,30.02,South,182,3.0,9.0,84,0.00,,,0.00,Wunderground v.1.15,2013-04-01 13:25:00,
2013-04-01 09:26:00,76.4,70.9,30.02,South,176,0.0,9.0,83,0.00,,,0.00,Wunderground v.1.15,2013-04-01 13:26:00,
2013-04-01 09:28:00,76.6,71.0,30.02,SE,133,9.0,9.0,83,0.00,,,0.00,Wunderground v.1.15,2013-04-01 13:28:00,
2013-04-01 09:29:00,76.7,71.1,30.02,South,181,7.0,9.0,83,0.00,,,0.00,Wunderground v.1.15,2013-04-01 13:29:00,
2013-04-01 09:31:00,76.8,70.9,30.02,South,171,9.0,9.0,82,0.00,,,0.00,Wunderground v.1.15,2013-04-01 13:31:00,
2013-04-01 09:34:00,76.9,71.0,30.02,South,173,0.0,11.0,82,0.00,,,0.00,Wunderground v.1.15,2013-04-01 13:34:00,
2013-04-01 09:36:00,76.9,71.0,30.02,South,181,0.0,11.0,82,0.00,,,0.00,Wunderground v.1.15,2013-04-01 13:36:00,
2013-04-01 09:39:00,77.1,71.2,30.02,SSE,165,4.0,11.0,82,0.00,,,0.00,Wunderground v.1.15,2013-04-01 13:39:00,
2013-04-01 09:41:00,77.2,70.9,30.02,SSE,148,6.0,12.0,81,0.00,,,0.00,Wunderground v.1.15,2013-04-01 13:41:00,
2013-04-01 09:42:00,77.1,70.8,30.02,SSE,157,5.0,12.0,81,0.00,,,0.00,Wunderground v.1.15,2013-04-01 13:42:00,
2013-04-01 09:44:00,77.0,70.7,30.02,SSE,167,0.0,12.0,81,0.00,,,0.00,Wunderground v.1.15,2013-04-01 13:44:00,
2013-04-01 09:45:00,76.9,70.6,30.02,SSE,157,5.0,12.0,81,0.00,,,0.00,Wunderground v.1.15,2013-04-01 13:45:00,
2013-04-01 09:46:00,76.9,71.0,30.02,South,169,6.0,12.0,82,0.00,,,0.00,Wunderground v.1.15,2013-04-01 13:46:00,
2013-04-01 09:47:00,76.8,70.9,30.02,SSW,194,8.0,12.0,82,0.00,,,0.00,Wunderground v.1.15,2013-04-01 13:47:00,
2013-04-01 09:49:00,76.9,71.0,30.02,SSE,163,8.0,12.0,82,0.00,,,0.00,Wunderground v.1.15,2013-04-01 13:49:00,
2013-04-01 09:51:00,77.0,71.1,30.02,South,178,6.0,6.0,82,0.00,,,0.00,Wunderground v.1.15,2013-04-01 13:51:00,
2013-04-01 09:52:00,77.2,71.3,30.02,South,191,0.0,6.0,82,0.00,,,0.00,Wunderground v.1.15,2013-04-01 13:52:00,
2013-04-01 09:54:00,77.5,71.6,30.02,SSE,157,1.0,7.0,82,0.00,,,0.00,Wunderground v.1.15,2013-04-01 13:54:00,
2013-04-01 09:56:00,77.7,71.4,30.02,SSE,161,4.0,8.0,81,0.00,,,0.00,Wunderground v.1.15,2013-04-01 13:56:00,
2013-04-01 09:57:00,77.8,71.5,30.02,South,169,2.0,8.0,81,0.00,,,0.00,Wunderground v.1.15,2013-04-01 13:57:00,
2013-04-01 09:58:00,77.9,71.6,30.02,South,182,5.0,8.0,81,0.00,,,0.00,Wunderground v.1.15,2013-04-01 13:58:00,
2013-04-01 09:59:00,78.2,71.5,30.02,SW,216,6.0,8.0,80,0.00,,,0.00,Wunderground v.1.15,2013-04-01 13:59:00,
2013-04-01 10:01:00,78.4,71.7,30.02,SSW,201,2.0,4.0,80,0.00,,,0.00,Wunderground v.1.15,2013-04-01 14:01:00,
2013-04-01 10:03:00,78.7,71.6,30.02,South,184,0.0,6.0,79,0.00,,,0.00,Wunderground v.1.15,2013-04-01 14:03:00,
2013-04-01 10:05:00,78.8,71.4,30.02,South,171,9.0,11.0,78,0.00,,,0.00,Wunderground v.1.15,2013-04-01 14:05:00,
2013-04-01 10:07:00,78.6,70.8,30.02,South,175,0.0,11.0,77,0.00,,,0.00,Wunderground v.1.15,2013-04-01 14:07:00,
2013-04-01 10:08:00,78.5,71.1,30.02,South,182,3.0,11.0,78,0.00,,,0.00,Wunderground v.1.15,2013-04-01 14:08:00,
2013-04-01 10:09:00,78.5,70.7,30.02,SSE,158,4.0,11.0,77,0.00,,,0.00,Wunderground v.1.15,2013-04-01 14:09:00,
2013-04-01 10:10:00,78.5,70.7,30.02,SSE,150,2.0,4.0,77,0.00,,,0.00,Wunderground v.1.15,2013-04-01 14:10:00,
2013-04-01 10:12:00,78.5,71.1,30.02,SSW,197,5.0,7.0,78,0.00,,,0.00,Wunderground v.1.15,2013-04-01 14:12:00,
2013-04-01 10:14:00,78.9,71.5,30.02,South,181,3.0,7.0,78,0.00,,,0.00,Wunderground v.1.15,2013-04-01 14:14:00,
2013-04-01 10:15:00,79.0,71.6,30.02,SSW,202,7.0,7.0,78,0.00,,,0.00,Wunderground v.1.15,2013-04-01 14:15:00,
2013-04-01 10:17:00,79.3,71.5,30.02,SSW,201,0.0,7.0,77,0.00,,,0.00,Wunderground v.1.15,2013-04-01 14:17:00,
2013-04-01 10:20:00,79.7,71.8,30.02,SSW,208,6.0,8.0,77,0.00,,,0.00,Wunderground v.1.15,2013-04-01 14:20:00,
2013-04-01 10:21:00,80.0,72.1,30.02,SSW,207,0.0,3.0,77,0.00,,,0.00,Wunderground v.1.15,2013-04-01 14:21:00,
2013-04-01 10:22:00,80.1,72.2,30.02,South,184,0.0,5.0,77,0.00,,,0.00,Wunderground v.1.15,2013-04-01 14:22:00,
2013-04-01 10:25:00,80.0,72.1,30.02,SSE,154,5.0,6.0,77,0.00,,,0.00,Wunderground v.1.15,2013-04-01 14:25:00,
2013-04-01 10:26:00,80.0,71.8,30.02,SSE,165,6.0,6.0,76,0.00,,,0.00,Wunderground v.1.15,2013-04-01 14:26:00,
2013-04-01 10:27:00,79.9,71.7,30.02,South,175,7.0,8.0,76,0.00,,,0.00,Wunderground v.1.15,2013-04-01 14:27:00,
2013-04-01 10:30:00,79.6,71.8,30.02,South,181,5.0,8.0,77,0.00,,,0.00,Wunderground v.1.15,2013-04-01 14:30:00,
2013-04-01 10:32:00,79.4,71.2,30.02,South,178,4.0,7.0,76,0.00,,,0.00,Wunderground v.1.15,2013-04-01 14:32:00,
2013-04-01 10:33:00,79.4,71.6,30.02,SSW,194,6.0,7.0,77,0.00,,,0.00,Wunderground v.1.15,2013-04-01 14:33:00,
2013-04-01 10:37:00,79.2,70.6,30.02,SSE,161,5.0,9.0,75,0.00,,,0.00,Wunderground v.1.15,2013-04-01 14:37:00,
2013-04-01 10:38:00,79.3,71.1,30.02,South,178,1.0,9.0,76,0.00,,,0.00,Wunderground v.1.15,2013-04-01 14:38:00,
2013-04-01 10:39:00,79.3,70.7,30.02,South,169,7.0,9.0,75,0.00,,,0.00,Wunderground v.1.15,2013-04-01 14:39:00,
2013-04-01 10:41:00,79.4,71.2,30.02,South,178,9.0,9.0,76,0.00,,,0.00,Wunderground v.1.15,2013-04-01 14:41:00,
2013-04-01 10:43:00,79.5,70.9,30.02,South,173,6.0,9.0,75,0.00,,,0.00,Wunderground v.1.15,2013-04-01 14:43:00,
2013-04-01 10:44:00,79.4,70.8,30.02,SSE,163,1.0,9.0,75,0.00,,,0.00,Wunderground v.1.15,2013-04-01 14:44:00,
2013-04-01 10:45:00,79.3,70.7,30.02,SSE,165,4.0,9.0,75,0.00,,,0.00,Wunderground v.1.15,2013-04-01 14:45:00,
2013-04-01 10:47:00,79.5,71.3,30.02,South,180,0.0,9.0,76,0.00,,,0.00,Wunderground v.1.15,2013-04-01 14:47:00,
2013-04-01 10:48:00,80.0,71.4,30.02,South,181,2.0,9.0,75,0.00,,,0.00,Wunderground v.1.15,2013-04-01 14:48:00,
2013-04-01 10:49:00,80.1,71.5,30.02,SSE,159,7.0,9.0,75,0.00,,,0.00,Wunderground v.1.15,2013-04-01 14:49:00,
2013-04-01 10:52:00,80.5,71.4,30.02,SSW,201,0.0,3.0,74,0.00,,,0.00,Wunderground v.1.15,2013-04-01 14:52:00,
2013-04-01 10:54:00,80.6,71.9,30.02,SSW,192,1.0,5.0,75,0.00,,,0.00,Wunderground v.1.15,2013-04-01 14:54:00,
2013-04-01 10:55:00,80.5,71.4,30.02,South,190,0.0,5.0,74,0.00,,,0.00,Wunderground v.1.15,2013-04-01 14:55:00,
2013-04-01 10:57:00,80.5,71.4,30.02,South,185,0.0,5.0,74,0.00,,,0.00,Wunderground v.1.15,2013-04-01 14:57:00,
2013-04-01 10:58:00,80.7,72.0,30.02,SSW,205,5.0,8.0,75,0.00,,,0.00,Wunderground v.1.15,2013-04-01 14:58:00,
2013-04-01 10:59:00,80.7,71.6,30.02,South,173,0.0,8.0,74,0.00,,,0.00,Wunderground v.1.15,2013-04-01 14:59:00,
2013-04-01 11:02:00,80.8,70.1,30.02,South,191,3.0,7.0,70,0.00,,,0.00,Wunderground v.1.15,2013-04-01 15:02:00,
2013-04-01 11:03:00,80.7,70.0,30.02,South,187,4.0,7.0,70,0.00,,,0.00,Wunderground v.1.15,2013-04-01 15:03:00,
2013-04-01 11:04:00,80.6,69.5,30.02,South,186,0.0,7.0,69,0.00,,,0.00,Wunderground v.1.15,2013-04-01 15:04:00,
2013-04-01 11:07:00,81.0,71.5,30.02,SW,221,1.0,7.0,73,0.00,,,0.00,Wunderground v.1.15,2013-04-01 15:07:00,
2013-04-01 11:08:00,81.1,71.2,30.02,SW,218,0.0,7.0,72,0.00,,,0.00,Wunderground v.1.15,2013-04-01 15:08:00,
2013-04-01 11:09:00,81.1,71.2,30.02,SW,219,0.0,7.0,72,0.00,,,0.00,Wunderground v.1.15,2013-04-01 15:09:00,
2013-04-01 11:12:00,81.2,71.7,30.02,SW,219,0.0,1.0,73,0.00,,,0.00,Wunderground v.1.15,2013-04-01 15:12:00,
2013-04-01 11:13:00,81.3,71.4,30.02,South,169,4.0,7.0,72,0.00,,,0.00,Wunderground v.1.15,2013-04-01 15:13:00,
2013-04-01 11:14:00,81.2,71.3,30.02,SSE,160,0.0,7.0,72,0.00,,,0.00,Wunderground v.1.15,2013-04-01 15:14:00,
2013-04-01 11:17:00,81.2,71.7,30.02,South,175,0.0,7.0,73,0.00,,,0.00,Wunderground v.1.15,2013-04-01 15:17:00,
2013-04-01 11:19:00,81.4,72.3,30.02,WSW,237,0.0,7.0,74,0.00,,,0.00,Wunderground v.1.15,2013-04-01 15:19:00,
2013-04-01 11:22:00,82.0,70.0,30.01,SW,227,1.0,6.0,67,0.00,,,0.00,Wunderground v.1.15,2013-04-01 15:22:00,
2013-04-01 11:23:00,82.1,70.1,30.01,SW,233,2.0,6.0,67,0.00,,,0.00,Wunderground v.1.15,2013-04-01 15:23:00,
2013-04-01 11:24:00,82.2,69.7,30.01,SW,234,0.0,6.0,66,0.00,,,0.00,Wunderground v.1.15,2013-04-01 15:24:00,
2013-04-01 11:27:00,82.1,70.9,30.01,SSW,196,5.0,6.0,69,0.00,,,0.00,Wunderground v.1.15,2013-04-01 15:27:00,
2013-04-01 11:29:00,82.1,69.6,30.01,South,180,0.0,6.0,66,0.00,,,0.00,Wunderground v.1.15,2013-04-01 15:29:00,
2013-04-01 11:32:00,82.2,67.9,30.01,South,190,0.0,1.0,62,0.00,,,0.00,Wunderground v.1.15,2013-04-01 15:32:00,
2013-04-01 11:33:00,82.2,67.9,30.01,SSW,192,0.0,1.0,62,0.00,,,0.00,Wunderground v.1.15,2013-04-01 15:33:00,
2013-04-01 11:34:00,82.1,67.8,30.01,South,184,4.0,4.0,62,0.00,,,0.00,Wunderground v.1.15,2013-04-01 15:34:00,
2013-04-01 11:37:00,81.7,68.3,30.01,SW,221,0.0,6.0,64,0.00,,,0.00,Wunderground v.1.15,2013-04-01 15:37:00,
2013-04-01 11:38:00,81.8,68.4,30.01,SW,221,0.0,6.0,64,0.00,,,0.00,Wunderground v.1.15,2013-04-01 15:38:00,
2013-04-01 11:39:00,82.1,68.3,30.01,SSW,193,1.0,6.0,63,0.00,,,0.00,Wunderground v.1.15,2013-04-01 15:39:00,
2013-04-01 11:40:00,82.2,67.4,30.01,SSW,194,0.0,6.0,61,0.00,,,0.00,Wunderground v.1.15,2013-04-01 15:40:00,
2013-04-01 11:43:00,82.3,67.5,30.02,South,188,0.0,6.0,61,0.00,,,0.00,Wunderground v.1.15,2013-04-01 15:43:00,
2013-04-01 11:44:00,82.3,67.5,30.02,South,191,0.0,6.0,61,0.00,,,0.00,Wunderground v.1.15,2013-04-01 15:44:00,
2013-04-01 11:45:00,82.4,68.5,30.02,SSW,196,2.0,6.0,63,0.00,,,0.00,Wunderground v.1.15,2013-04-01 15:45:00,
2013-04-01 11:48:00,82.8,69.4,30.02,South,170,2.0,6.0,64,0.00,,,0.00,Wunderground v.1.15,2013-04-01 15:48:00,
2013-04-01 11:49:00,82.8,68.9,30.02,South,191,7.0,7.0,63,0.00,,,0.00,Wunderground v.1.15,2013-04-01 15:49:00,
2013-04-01 11:50:00,82.6,68.3,30.02,SW,217,5.0,7.0,62,0.00,,,0.00,Wunderground v.1.15,2013-04-01 15:50:00,
2013-04-01 11:53:00,82.3,68.4,30.01,South,175,2.0,8.0,63,0.00,,,0.00,Wunderground v.1.15,2013-04-01 15:53:00,
2013-04-01 11:54:00,82.2,68.3,30.01,South,175,1.0,8.0,63,0.00,,,0.00,Wunderground v.1.15,2013-04-01 15:54:00,
2013-04-01 11:55:00,82.1,68.3,30.01,South,173,1.0,8.0,63,0.00,,,0.00,Wunderground v.1.15,2013-04-01 15:55:00,
2013-04-01 11:59:00,82.2,69.3,30.01,SSW,194,6.0,8.0,65,0.00,,,0.00,Wunderground v.1.15,2013-04-01 15:59:00,
2013-04-01 12:00:00,82.3,69.8,30.01,SSW,205,0.0,8.0,66,0.00,,,0.00,Wunderground v.1.15,2013-04-01 16:00:00,
2013-04-01 12:01:00,82.4,69.4,30.01,South,182,2.0,7.0,65,0.00,,,0.00,Wunderground v.1.15,2013-04-01 16:01:00,
2013-04-01 12:04:00,82.8,69.8,30.01,South,178,8.0,8.0,65,0.00,,,0.00,Wunderground v.1.15,2013-04-01 16:04:00,
2013-04-01 12:05:00,82.9,69.9,30.01,SSW,196,6.0,8.0,65,0.00,,,0.00,Wunderground v.1.15,2013-04-01 16:05:00,
2013-04-01 12:07:00,82.9,69.0,30.01,SSW,192,0.0,8.0,63,0.00,,,0.00,Wunderground v.1.15,2013-04-01 16:07:00,
2013-04-01 12:09:00,82.8,69.8,30.01,South,190,0.0,8.0,65,0.00,,,0.00,Wunderground v.1.15,2013-04-01 16:09:00,
2013-04-01 12:11:00,83.1,70.1,30.01,SSW,194,0.0,5.0,65,0.00,,,0.00,Wunderground v.1.15,2013-04-01 16:11:00,
2013-04-01 12:12:00,83.2,69.8,30.01,SSW,194,0.0,5.0,64,0.00,,,0.00,Wunderground v.1.15,2013-04-01 16:12:00,
2013-04-01 12:14:00,83.7,68.8,30.01,SSE,165,2.0,5.0,61,0.00,,,0.00,Wunderground v.1.15,2013-04-01 16:14:00,
2013-04-01 12:15:00,83.9,69.0,30.01,SSW,211,7.0,7.0,61,0.00,,,0.00,Wunderground v.1.15,2013-04-01 16:15:00,
2013-04-01 12:17:00,84.0,69.6,30.01,SSW,200,4.0,7.0,62,0.00,,,0.00,Wunderground v.1.15,2013-04-01 16:17:00,
2013-04-01 12:19:00,84.4,68.5,30.01,WNW,286,5.0,7.0,59,0.00,,,0.00,Wunderground v.1.15,2013-04-01 16:19:00,
2013-04-01 12:20:00,84.3,68.4,30.01,WSW,255,4.0,7.0,59,0.00,,,0.00,Wunderground v.1.15,2013-04-01 16:20:00,
2013-04-01 12:22:00,84.1,67.2,30.01,WSW,247,4.0,5.0,57,0.00,,,0.00,Wunderground v.1.15,2013-04-01 16:22:00,
2013-04-01 12:24:00,84.3,67.9,30.01,WSW,248,0.0,5.0,58,0.00,,,0.00,Wunderground v.1.15,2013-04-01 16:24:00,
2013-04-01 12:25:00,84.7,69.8,30.00,WSW,237,0.0,5.0,61,0.00,,,0.00,Wunderground v.1.15,2013-04-01 16:25:00,
2013-04-01 12:28:00,84.8,68.9,30.00,SW,217,1.0,5.0,59,0.00,,,0.00,Wunderground v.1.15,2013-04-01 16:28:00,
2013-04-01 12:29:00,84.8,68.9,30.00,SSW,192,1.0,5.0,59,0.00,,,0.00,Wunderground v.1.15,2013-04-01 16:29:00,
2013-04-01 12:30:00,84.8,68.9,30.00,South,186,0.0,1.0,59,0.00,,,0.00,Wunderground v.1.15,2013-04-01 16:30:00,
2013-04-01 12:32:00,85.1,68.7,30.00,South,189,1.0,5.0,58,0.00,,,0.00,Wunderground v.1.15,2013-04-01 16:32:00,
2013-04-01 12:33:00,85.0,68.6,30.00,South,188,0.0,5.0,58,0.00,,,0.00,Wunderground v.1.15,2013-04-01 16:33:00,
2013-04-01 12:34:00,84.8,68.4,30.00,SSW,202,0.0,5.0,58,0.00,,,0.00,Wunderground v.1.15,2013-04-01 16:34:00,
2013-04-01 12:35:00,84.5,68.1,30.00,SSW,202,0.0,5.0,58,0.00,,,0.00,Wunderground v.1.15,2013-04-01 16:35:00,
2013-04-01 12:38:00,83.9,67.0,30.00,SSW,205,0.0,5.0,57,0.00,,,0.00,Wunderground v.1.15,2013-04-01 16:38:00,
2013-04-01 12:39:00,83.6,67.3,30.00,SW,215,0.0,5.0,58,0.00,,,0.00,Wunderground v.1.15,2013-04-01 16:39:00,
2013-04-01 12:41:00,83.5,68.2,30.00,SW,215,0.0,1.0,60,0.00,,,0.00,Wunderground v.1.15,2013-04-01 16:41:00,
2013-04-01 12:43:00,83.4,68.1,30.00,SW,215,1.0,1.0,60,0.00,,,0.00,Wunderground v.1.15,2013-04-01 16:43:00,
2013-04-01 12:45:00,83.6,68.7,30.00,SW,215,0.0,2.0,61,0.00,,,0.00,Wunderground v.1.15,2013-04-01 16:45:00,
2013-04-01 12:46:00,83.8,68.4,30.00,SW,215,1.0,2.0,60,0.00,,,0.00,Wunderground v.1.15,2013-04-01 16:46:00,
2013-04-01 12:49:00,85.1,67.6,30.00,WSW,240,4.0,7.0,56,0.00,,,0.00,Wunderground v.1.15,2013-04-01 16:49:00,
2013-04-01 12:50:00,85.4,68.9,30.00,NW,309,4.0,4.0,58,0.00,,,0.00,Wunderground v.1.15,2013-04-01 16:50:00,
2013-04-01 12:51:00,85.6,70.1,29.99,NW,304,2.0,4.0,60,0.00,,,0.00,Wunderground v.1.15,2013-04-01 16:51:00,
2013-04-01 12:54:00,86.2,68.1,29.99,SW,224,1.0,5.0,55,0.00,,,0.00,Wunderground v.1.15,2013-04-01 16:54:00,
2013-04-01 12:55:00,86.1,67.5,29.99,NW,314,5.0,5.0,54,0.00,,,0.00,Wunderground v.1.15,2013-04-01 16:55:00,
2013-04-01 12:57:00,85.8,68.3,29.99,NNW,337,0.0,5.0,56,0.00,,,0.00,Wunderground v.1.15,2013-04-01 16:57:00,
2013-04-01 12:59:00,85.5,67.0,29.99,West,270,0.0,5.0,54,0.00,,,0.00,Wunderground v.1.15,2013-04-01 16:59:00,
2013-04-01 13:01:00,85.0,67.0,29.99,West,259,1.0,2.0,55,0.00,,,0.00,Wunderground v.1.15,2013-04-01 17:01:00,
2013-04-01 13:03:00,84.5,66.0,29.99,WSW,253,2.0,5.0,54,0.00,,,0.00,Wunderground v.1.15,2013-04-01 17:03:00,
2013-04-01 13:06:00,83.5,66.2,29.99,West,259,1.0,6.0,56,0.00,,,0.00,Wunderground v.1.15,2013-04-01 17:06:00,
2013-04-01 13:08:00,83.2,65.9,29.99,West,276,2.0,6.0,56,0.00,,,0.00,Wunderground v.1.15,2013-04-01 17:08:00,
2013-04-01 13:12:00,83.9,68.5,29.99,WNW,282,0.0,3.0,60,0.00,,,0.00,Wunderground v.1.15,2013-04-01 17:12:00,
2013-04-01 13:13:00,84.6,69.2,29.99,West,263,0.0,5.0,60,0.00,,,0.00,Wunderground v.1.15,2013-04-01 17:13:00,
2013-04-01 13:17:00,85.2,68.8,29.98,WNW,287,2.0,6.0,58,0.00,,,0.00,Wunderground v.1.15,2013-04-01 17:17:00,
2013-04-01 13:18:00,85.1,68.7,29.98,WNW,288,0.0,6.0,58,0.00,,,0.00,Wunderground v.1.15,2013-04-01 17:18:00,
2013-04-01 13:22:00,84.1,67.7,29.98,West,275,0.0,1.0,58,0.00,,,0.00,Wunderground v.1.15,2013-04-01 17:22:00,
2013-04-01 13:23:00,84.1,67.2,29.98,West,275,0.0,1.0,57,0.00,,,0.00,Wunderground v.1.15,2013-04-01 17:23:00,
2013-04-01 13:25:00,84.3,68.9,29.98,WNW,287,0.0,2.0,60,0.00,,,0.00,Wunderground v.1.15,2013-04-01 17:25:00,
2013-04-01 13:28:00,84.6,67.2,29.98,WNW,294,0.0,2.0,56,0.00,,,0.00,Wunderground v.1.15,2013-04-01 17:28:00,
2013-04-01 13:30:00,84.3,67.4,29.98,West,275,0.0,2.0,57,0.00,,,0.00,Wunderground v.1.15,2013-04-01 17:30:00,
2013-04-01 13:33:00,84.3,67.4,29.98,WNW,290,0.0,2.0,57,0.00,,,0.00,Wunderground v.1.15,2013-04-01 17:33:00,
2013-04-01 13:36:00,84.5,67.6,29.98,NW,311,1.0,6.0,57,0.00,,,0.00,Wunderground v.1.15,2013-04-01 17:36:00,
2013-04-01 13:38:00,84.5,67.6,29.98,West,278,0.0,6.0,57,0.00,,,0.00,Wunderground v.1.15,2013-04-01 17:38:00,
2013-04-01 13:39:00,84.6,67.7,29.98,West,263,0.0,6.0,57,0.00,,,0.00,Wunderground v.1.15,2013-04-01 17:39:00,
2013-04-01 13:41:00,84.7,67.3,29.98,NW,310,1.0,1.0,56,0.00,,,0.00,Wunderground v.1.15,2013-04-01 17:41:00,
2013-04-01 13:43:00,84.6,67.7,29.98,NNW,330,4.0,4.0,57,0.00,,,0.00,Wunderground v.1.15,2013-04-01 17:43:00,
2013-04-01 13:44:00,84.6,67.7,29.98,NW,321,0.0,8.0,57,0.00,,,0.00,Wunderground v.1.15,2013-04-01 17:44:00,
2013-04-01 13:47:00,84.4,67.5,29.97,NW,316,1.0,8.0,57,0.00,,,0.00,Wunderground v.1.15,2013-04-01 17:47:00,
2013-04-01 13:48:00,84.3,67.9,29.97,NW,323,0.0,8.0,58,0.00,,,0.00,Wunderground v.1.15,2013-04-01 17:48:00,
2013-04-01 13:49:00,84.5,68.6,29.97,West,280,1.0,8.0,59,0.00,,,0.00,Wunderground v.1.15,2013-04-01 17:49:00,
2013-04-01 13:52:00,85.8,69.3,29.97,NW,321,0.0,7.0,58,0.00,,,0.00,Wunderground v.1.15,2013-04-01 17:52:00,
2013-04-01 13:54:00,86.3,69.8,29.97,NW,320,2.0,7.0,58,0.00,,,0.00,Wunderground v.1.15,2013-04-01 17:54:00,
2013-04-01 13:57:00,86.8,68.2,29.97,WNW,298,3.0,7.0,54,0.00,,,0.00,Wunderground v.1.15,2013-04-01 17:57:00,
2013-04-01 13:58:00,86.7,68.1,29.97,WNW,284,3.0,7.0,54,0.00,,,0.00,Wunderground v.1.15,2013-04-01 17:58:00,
2013-04-01 13:59:00,86.5,67.9,29.97,NW,317,4.0,8.0,54,0.00,,,0.00,Wunderground v.1.15,2013-04-01 17:59:00,
2013-04-01 14:03:00,85.7,67.1,29.97,WSW,237,2.0,7.0,54,0.00,,,0.00,Wunderground v.1.15,2013-04-01 18:03:00,
2013-04-01 14:04:00,85.5,66.4,29.97,West,267,0.0,7.0,53,0.00,,,0.00,Wunderground v.1.15,2013-04-01 18:04:00,
2013-04-01 14:05:00,85.4,66.9,29.97,West,267,0.0,7.0,54,0.00,,,0.00,Wunderground v.1.15,2013-04-01 18:05:00,
2013-04-01 14:10:00,86.4,69.4,29.96,WNW,300,0.0,8.0,57,0.00,,,0.00,Wunderground v.1.15,2013-04-01 18:10:00,
2013-04-01 14:11:00,86.8,68.7,29.96,NW,308,1.0,2.0,55,0.00,,,0.00,Wunderground v.1.15,2013-04-01 18:11:00,
2013-04-01 14:12:00,87.2,69.1,29.96,NW,309,0.0,2.0,55,0.00,,,0.00,Wunderground v.1.15,2013-04-01 18:12:00,
2013-04-01 14:15:00,87.8,68.5,29.96,WNW,288,1.0,5.0,53,0.00,,,0.00,Wunderground v.1.15,2013-04-01 18:15:00,
2013-04-01 14:16:00,87.7,67.9,29.96,WSW,254,3.0,6.0,52,0.00,,,0.00,Wunderground v.1.15,2013-04-01 18:16:00,
2013-04-01 14:17:00,87.7,67.9,29.96,West,277,4.0,6.0,52,0.00,,,0.00,Wunderground v.1.15,2013-04-01 18:17:00,
2013-04-01 14:20:00,87.8,69.6,29.95,NW,316,0.0,6.0,55,0.00,,,0.00,Wunderground v.1.15,2013-04-01 18:20:00,
2013-04-01 14:21:00,87.9,69.7,29.95,WNW,292,2.0,2.0,55,0.00,,,0.00,Wunderground v.1.15,2013-04-01 18:21:00,
2013-04-01 14:23:00,88.4,70.7,29.95,NW,325,2.0,2.0,56,0.00,,,0.00,Wunderground v.1.15,2013-04-01 18:23:00,
2013-04-01 14:25:00,88.4,69.1,29.95,NNW,328,1.0,5.0,53,0.00,,,0.00,Wunderground v.1.15,2013-04-01 18:25:00,
2013-04-01 14:27:00,88.3,68.4,29.95,WSW,246,0.0,5.0,52,0.00,,,0.00,Wunderground v.1.15,2013-04-01 18:27:00,
2013-04-01 14:28:00,88.0,69.3,29.96,WSW,249,0.0,5.0,54,0.00,,,0.00,Wunderground v.1.15,2013-04-01 18:28:00,
2013-04-01 14:31:00,87.8,68.5,29.96,NW,321,1.0,1.0,53,0.00,,,0.00,Wunderground v.1.15,2013-04-01 18:31:00,
2013-04-01 14:32:00,87.7,69.0,29.96,NW,304,2.0,4.0,54,0.00,,,0.00,Wunderground v.1.15,2013-04-01 18:32:00,
2013-04-01 14:36:00,86.7,67.5,29.96,WSW,250,6.0,8.0,53,0.00,,,0.00,Wunderground v.1.15,2013-04-01 18:36:00,
2013-04-01 14:37:00,86.7,67.5,29.96,WSW,250,4.0,8.0,53,0.00,,,0.00,Wunderground v.1.15,2013-04-01 18:37:00,
2013-04-01 14:42:00,85.2,68.2,29.96,NW,321,0.0,6.0,57,0.00,,,0.00,Wunderground v.1.15,2013-04-01 18:42:00,
2013-04-01 14:47:00,84.7,68.3,29.96,West,281,0.0,6.0,58,0.00,,,0.00,Wunderground v.1.15,2013-04-01 18:47:00,
2013-04-01 14:48:00,85.2,69.7,29.96,West,277,1.0,6.0,60,0.00,,,0.00,Wunderground v.1.15,2013-04-01 18:48:00,
2013-04-01 14:52:00,86.9,69.8,29.95,SW,231,0.0,1.0,57,0.00,,,0.00,Wunderground v.1.15,2013-04-01 18:52:00,
2013-04-01 14:53:00,87.0,68.9,29.95,WNW,292,0.0,5.0,55,0.00,,,0.00,Wunderground v.1.15,2013-04-01 18:53:00,
2013-04-01 14:57:00,86.7,69.1,29.96,SE,138,9.0,11.0,56,0.00,,,0.00,Wunderground v.1.15,2013-04-01 18:57:00,
2013-04-01 14:58:00,86.2,69.2,29.96,South,190,8.0,11.0,57,0.00,,,0.00,Wunderground v.1.15,2013-04-01 18:58:00,
2013-04-01 15:03:00,82.0,68.6,29.95,SSE,159,9.0,9.0,64,0.00,,,0.00,Wunderground v.1.15,2013-04-01 19:03:00,
2013-04-01 15:04:00,81.2,68.3,29.95,SSE,165,4.0,11.0,65,0.00,,,0.00,Wunderground v.1.15,2013-04-01 19:04:00,
2013-04-01 15:08:00,79.6,68.5,29.95,South,171,10.0,11.0,69,0.00,,,0.00,Wunderground v.1.15,2013-04-01 19:08:00,
2013-04-01 15:09:00,79.2,67.7,29.95,SSE,168,1.0,11.0,68,0.00,,,0.00,Wunderground v.1.15,2013-04-01 19:09:00,
2013-04-01 15:13:00,78.1,67.5,29.96,South,175,3.0,13.0,70,0.00,,,0.00,Wunderground v.1.15,2013-04-01 19:13:00,
2013-04-01 15:14:00,77.9,67.3,29.96,SW,219,9.0,13.0,70,0.00,,,0.00,Wunderground v.1.15,2013-04-01 19:14:00,
2013-04-01 15:15:00,77.7,67.1,29.96,SSE,155,8.0,13.0,70,0.00,,,0.00,Wunderground v.1.15,2013-04-01 19:15:00,
2013-04-01 15:18:00,77.2,67.5,29.96,SE,126,9.0,13.0,72,0.00,,,0.00,Wunderground v.1.15,2013-04-01 19:18:00,
2013-04-01 15:19:00,77.0,67.7,29.96,SE,135,9.0,13.0,73,0.00,,,0.00,Wunderground v.1.15,2013-04-01 19:19:00,
2013-04-01 15:20:00,76.9,67.6,29.96,SSE,165,10.0,14.0,73,0.00,,,0.00,Wunderground v.1.15,2013-04-01 19:20:00,
2013-04-01 15:21:00,76.8,67.9,29.97,SSE,150,5.0,10.0,74,0.00,,,0.00,Wunderground v.1.15,2013-04-01 19:21:00,
2013-04-01 15:24:00,76.5,68.0,29.96,South,188,8.0,12.0,75,0.00,,,0.00,Wunderground v.1.15,2013-04-01 19:24:00,
2013-04-01 15:26:00,76.5,68.4,29.96,South,175,8.0,12.0,76,0.00,,,0.00,Wunderground v.1.15,2013-04-01 19:26:00,
2013-04-01 15:29:00,76.6,68.8,29.96,SE,140,9.0,12.0,77,0.00,,,0.00,Wunderground v.1.15,2013-04-01 19:29:00,
2013-04-01 15:30:00,76.6,68.8,29.96,South,178,7.0,12.0,77,0.00,,,0.00,Wunderground v.1.15,2013-04-01 19:30:00,
2013-04-01 15:31:00,76.7,68.9,29.96,SE,135,8.0,10.0,77,0.00,,,0.00,Wunderground v.1.15,2013-04-01 19:31:00,
2013-04-01 15:32:00,76.7,68.9,29.96,SE,130,7.0,10.0,77,0.00,,,0.00,Wunderground v.1.15,2013-04-01 19:32:00,
2013-04-01 15:34:00,76.7,68.9,29.96,SSE,163,0.0,10.0,77,0.00,,,0.00,Wunderground v.1.15,2013-04-01 19:34:00,
2013-04-01 15:35:00,76.7,68.9,29.96,SE,134,6.0,10.0,77,0.00,,,0.00,Wunderground v.1.15,2013-04-01 19:35:00,
2013-04-01 15:37:00,76.6,68.8,29.95,South,188,2.0,10.0,77,0.00,,,0.00,Wunderground v.1.15,2013-04-01 19:37:00,
2013-04-01 15:38:00,76.6,68.8,29.95,South,181,0.0,14.0,77,0.00,,,0.00,Wunderground v.1.15,2013-04-01 19:38:00,
2013-04-01 15:39:00,76.6,68.8,29.95,South,174,6.0,14.0,77,0.00,,,0.00,Wunderground v.1.15,2013-04-01 19:39:00,
2013-04-01 15:40:00,76.7,68.9,29.95,SSE,158,8.0,10.0,77,0.00,,,0.00,Wunderground v.1.15,2013-04-01 19:40:00,
2013-04-01 15:42:00,76.8,68.7,29.95,SE,142,8.0,12.0,76,0.00,,,0.00,Wunderground v.1.15,2013-04-01 19:42:00,
2013-04-01 15:44:00,77.0,69.2,29.95,SSE,148,6.0,12.0,77,0.00,,,0.00,Wunderground v.1.15,2013-04-01 19:44:00,
2013-04-01 15:46:00,77.1,68.9,29.95,SSE,165,6.0,12.0,76,0.00,,,0.00,Wunderground v.1.15,2013-04-01 19:46:00,
2013-04-01 15:47:00,77.0,68.9,29.95,ESE,123,9.0,12.0,76,0.00,,,0.00,Wunderground v.1.15,2013-04-01 19:47:00,
2013-04-01 15:49:00,76.9,69.1,29.95,SE,137,7.0,12.0,77,0.00,,,0.00,Wunderground v.1.15,2013-04-01 19:49:00,
2013-04-01 15:52:00,76.7,68.9,29.95,SSE,152,5.0,9.0,77,0.00,,,0.00,Wunderground v.1.15,2013-04-01 19:52:00,
2013-04-01 15:54:00,76.4,68.7,29.95,SSE,164,8.0,12.0,77,0.00,,,0.00,Wunderground v.1.15,2013-04-01 19:54:00,
2013-04-01 15:55:00,76.4,68.3,29.95,SSE,156,6.0,12.0,76,0.00,,,0.00,Wunderground v.1.15,2013-04-01 19:55:00,
2013-04-01 15:57:00,76.1,68.0,29.95,SSE,155,7.0,12.0,76,0.00,,,0.00,Wunderground v.1.15,2013-04-01 19:57:00,
2013-04-01 16:00:00,75.9,67.8,29.95,SE,136,9.0,12.0,76,0.00,,,0.00,Wunderground v.1.15,2013-04-01 20:00:00,
2013-04-01 16:01:00,75.7,67.6,29.95,South,169,2.0,6.0,76,0.00,,,0.00,Wunderground v.1.15,2013-04-01 20:01:00,
2013-04-01 16:02:00,75.6,67.1,29.94,SE,127,5.0,8.0,75,0.00,,,0.00,Wunderground v.1.15,2013-04-01 20:02:00,
2013-04-01 16:05:00,75.4,66.9,29.94,South,170,6.0,11.0,75,0.00,,,0.00,Wunderground v.1.15,2013-04-01 20:05:00,
2013-04-01 16:06:00,75.3,66.8,29.94,SE,126,9.0,12.0,75,0.00,,,0.00,Wunderground v.1.15,2013-04-01 20:06:00,
2013-04-01 16:08:00,75.2,67.1,29.94,South,178,10.0,12.0,76,0.00,,,0.00,Wunderground v.1.15,2013-04-01 20:08:00,
2013-04-01 16:11:00,74.9,66.8,29.94,SE,142,3.0,12.0,76,0.00,,,0.00,Wunderground v.1.15,2013-04-01 20:11:00,
2013-04-01 16:12:00,74.8,67.1,29.94,SSE,156,9.0,12.0,77,0.00,,,0.01,Wunderground v.1.15,2013-04-01 20:12:00,
2013-04-01 16:13:00,74.6,66.9,29.94,SSE,160,6.0,12.0,77,0.00,,,0.01,Wunderground v.1.15,2013-04-01 20:13:00,
2013-04-01 16:16:00,74.0,66.7,29.95,SSE,149,0.0,12.0,78,0.65,,,0.04,Wunderground v.1.15,2013-04-01 20:16:00,
2013-04-01 16:17:00,73.9,67.0,29.95,SSE,153,4.0,12.0,79,0.42,,,0.04,Wunderground v.1.15,2013-04-01 20:17:00,
2013-04-01 16:18:00,73.7,66.8,29.95,South,176,6.0,12.0,79,0.31,,,0.04,Wunderground v.1.15,2013-04-01 20:18:00,
2013-04-01 16:22:00,72.6,67.1,29.95,South,172,5.0,8.0,83,0.09,,,0.04,Wunderground v.1.15,2013-04-01 20:22:00,
2013-04-01 16:23:00,72.6,67.1,29.95,South,175,2.0,8.0,83,0.08,,,0.04,Wunderground v.1.15,2013-04-01 20:23:00,
2013-04-01 16:24:00,72.6,67.5,29.94,SSE,148,4.0,8.0,84,0.07,,,0.04,Wunderground v.1.15,2013-04-01 20:24:00,
2013-04-01 16:27:00,72.5,67.4,29.94,SSE,163,4.0,8.0,84,0.05,,,0.04,Wunderground v.1.15,2013-04-01 20:27:00,
2013-04-01 16:28:00,72.5,67.7,29.94,South,170,5.0,8.0,85,0.05,,,0.04,Wunderground v.1.15,2013-04-01 20:28:00,
2013-04-01 16:29:00,72.5,67.7,29.94,SE,134,8.0,8.0,85,0.04,,,0.04,Wunderground v.1.15,2013-04-01 20:29:00,
2013-04-01 16:33:00,72.4,67.6,29.94,SSE,168,5.0,11.0,85,0.00,,,0.04,Wunderground v.1.15,2013-04-01 20:33:00,
2013-04-01 16:34:00,72.4,67.6,29.94,South,172,3.0,11.0,85,0.00,,,0.04,Wunderground v.1.15,2013-04-01 20:34:00,
2013-04-01 16:35:00,72.4,67.6,29.94,SSE,161,1.0,11.0,85,0.00,,,0.04,Wunderground v.1.15,2013-04-01 20:35:00,
2013-04-01 16:39:00,72.4,67.6,29.94,SSE,164,2.0,11.0,85,0.00,,,0.04,Wunderground v.1.15,2013-04-01 20:39:00,
2013-04-01 16:41:00,72.4,67.6,29.94,SE,132,5.0,5.0,85,0.00,,,0.04,Wunderground v.1.15,2013-04-01 20:41:00,
2013-04-01 16:44:00,72.4,67.6,29.94,South,176,5.0,6.0,85,0.00,,,0.04,Wunderground v.1.15,2013-04-01 20:44:00,
2013-04-01 16:46:00,72.4,67.3,29.94,SSE,151,0.0,8.0,84,0.00,,,0.04,Wunderground v.1.15,2013-04-01 20:46:00,
2013-04-01 16:49:00,72.6,67.5,29.94,SE,126,8.0,10.0,84,0.00,,,0.04,Wunderground v.1.15,2013-04-01 20:49:00,
2013-04-01 16:52:00,72.8,67.3,29.93,South,171,4.0,8.0,83,0.00,,,0.04,Wunderground v.1.15,2013-04-01 20:52:00,
2013-04-01 16:54:00,73.0,67.5,29.93,SSE,167,0.0,8.0,83,0.00,,,0.04,Wunderground v.1.15,2013-04-01 20:54:00,
2013-04-01 16:57:00,73.3,67.5,29.93,SE,144,0.0,8.0,82,0.00,,,0.04,Wunderground v.1.15,2013-04-01 20:57:00,
2013-04-01 16:59:00,73.5,67.7,29.93,SE,132,6.0,8.0,82,0.00,,,0.04,Wunderground v.1.15,2013-04-01 20:59:00,
2013-04-01 17:00:00,73.6,67.8,29.93,SE,129,0.0,8.0,82,0.00,,,0.04,Wunderground v.1.15,2013-04-01 21:00:00,
2013-04-01 17:01:00,73.8,68.0,29.93,SE,132,0.0,2.0,82,0.00,,,0.04,Wunderground v.1.15,2013-04-01 21:01:00,
2013-04-01 17:03:00,74.0,67.8,29.93,SSE,150,4.0,7.0,81,0.00,,,0.04,Wunderground v.1.15,2013-04-01 21:03:00,
2013-04-01 17:05:00,74.2,68.3,29.93,SSE,149,1.0,7.0,82,0.00,,,0.04,Wunderground v.1.15,2013-04-01 21:05:00,
2013-04-01 17:06:00,74.3,67.7,29.93,SSE,168,6.0,8.0,80,0.00,,,0.04,Wunderground v.1.15,2013-04-01 21:06:00,
2013-04-01 17:08:00,74.4,67.5,29.93,SE,140,0.0,8.0,79,0.00,,,0.04,Wunderground v.1.15,2013-04-01 21:08:00,
2013-04-01 17:11:00,74.6,67.3,29.93,SSE,149,5.0,5.0,78,0.00,,,0.04,Wunderground v.1.15,2013-04-01 21:11:00,
2013-04-01 17:12:00,74.6,67.3,29.93,SSE,159,5.0,6.0,78,0.00,,,0.04,Wunderground v.1.15,2013-04-01 21:12:00,
2013-04-01 17:13:00,74.7,67.4,29.93,SSE,165,1.0,6.0,78,0.00,,,0.04,Wunderground v.1.15,2013-04-01 21:13:00,
2013-04-01 17:16:00,74.8,67.5,29.93,SSE,168,1.0,7.0,78,0.00,,,0.04,Wunderground v.1.15,2013-04-01 21:16:00,
2013-04-01 17:17:00,74.8,67.5,29.93,South,170,4.0,7.0,78,0.00,,,0.04,Wunderground v.1.15,2013-04-01 21:17:00,
2013-04-01 17:18:00,74.9,67.6,29.93,South,170,1.0,7.0,78,0.00,,,0.04,Wunderground v.1.15,2013-04-01 21:18:00,
2013-04-01 17:21:00,75.0,68.0,29.93,South,169,0.0,1.0,79,0.00,,,0.04,Wunderground v.1.15,2013-04-01 21:21:00,
2013-04-01 17:22:00,75.0,68.0,29.93,South,169,2.0,4.0,79,0.00,,,0.04,Wunderground v.1.15,2013-04-01 21:22:00,
2013-04-01 17:23:00,75.1,68.1,29.92,South,169,0.0,4.0,79,0.00,,,0.04,Wunderground v.1.15,2013-04-01 21:23:00,
2013-04-01 17:27:00,75.3,68.3,29.92,SSE,167,5.0,5.0,79,0.00,,,0.04,Wunderground v.1.15,2013-04-01 21:27:00,
2013-04-01 17:28:00,75.3,68.3,29.92,SSE,168,1.0,5.0,79,0.00,,,0.04,Wunderground v.1.15,2013-04-01 21:28:00,
2013-04-01 17:29:00,75.5,68.5,29.92,South,176,4.0,7.0,79,0.00,,,0.04,Wunderground v.1.15,2013-04-01 21:29:00,
2013-04-01 17:32:00,75.8,68.8,29.93,SSE,162,0.0,4.0,79,0.00,,,0.04,Wunderground v.1.15,2013-04-01 21:32:00,
2013-04-01 17:33:00,75.9,68.9,29.93,SSE,160,0.0,5.0,79,0.00,,,0.04,Wunderground v.1.15,2013-04-01 21:33:00,
2013-04-01 17:34:00,76.0,69.0,29.93,SSE,159,0.0,5.0,79,0.00,,,0.04,Wunderground v.1.15,2013-04-01 21:34:00,
2013-04-01 17:38:00,76.4,69.4,29.93,SSE,156,4.0,5.0,79,0.00,,,0.04,Wunderground v.1.15,2013-04-01 21:38:00,
2013-04-01 17:39:00,76.5,69.5,29.93,SSE,156,0.0,5.0,79,0.00,,,0.04,Wunderground v.1.15,2013-04-01 21:39:00,
2013-04-01 17:41:00,76.6,69.2,29.93,SSE,157,0.0,1.0,78,0.00,,,0.04,Wunderground v.1.15,2013-04-01 21:41:00,
2013-04-01 17:43:00,76.7,69.3,29.93,SSE,157,0.0,4.0,78,0.00,,,0.04,Wunderground v.1.15,2013-04-01 21:43:00,
2013-04-01 17:44:00,76.7,69.3,29.93,SSE,157,0.0,4.0,78,0.00,,,0.04,Wunderground v.1.15,2013-04-01 21:44:00,
2013-04-01 17:46:00,76.7,69.3,29.93,SSE,157,0.0,4.0,78,0.00,,,0.04,Wunderground v.1.15,2013-04-01 21:46:00,
2013-04-01 17:49:00,76.8,69.4,29.93,SSE,157,0.0,4.0,78,0.00,,,0.04,Wunderground v.1.15,2013-04-01 21:49:00,
2013-04-01 17:52:00,76.9,69.5,29.93,SSE,157,0.0,1.0,78,0.00,,,0.04,Wunderground v.1.15,2013-04-01 21:52:00,
2013-04-01 17:54:00,76.9,69.9,29.93,SSE,157,0.0,1.0,79,0.00,,,0.04,Wunderground v.1.15,2013-04-01 21:54:00,
2013-04-01 17:58:00,77.0,69.6,29.93,SSE,157,0.0,2.0,78,0.00,,,0.04,Wunderground v.1.15,2013-04-01 21:58:00,
2013-04-01 17:59:00,77.0,69.6,29.93,SSE,157,0.0,2.0,78,0.00,,,0.04,Wunderground v.1.15,2013-04-01 21:59:00,
2013-04-01 18:00:00,77.1,69.7,29.93,SSE,157,0.0,2.0,78,0.00,,,0.04,Wunderground v.1.15,2013-04-01 22:00:00,
2013-04-01 18:03:00,77.1,69.3,29.93,SSE,157,3.0,4.0,77,0.00,,,0.04,Wunderground v.1.15,2013-04-01 22:03:00,
2013-04-01 18:04:00,77.2,69.4,29.93,SSE,158,0.0,5.0,77,0.00,,,0.04,Wunderground v.1.15,2013-04-01 22:04:00,
2013-04-01 18:05:00,77.2,69.0,29.93,SSE,158,0.0,5.0,76,0.00,,,0.04,Wunderground v.1.15,2013-04-01 22:05:00,
2013-04-01 18:06:00,77.3,69.1,29.93,SSE,159,0.0,5.0,76,0.00,,,0.04,Wunderground v.1.15,2013-04-01 22:06:00,
2013-04-01 18:08:00,77.3,69.1,29.93,SSE,159,0.0,5.0,76,0.00,,,0.04,Wunderground v.1.15,2013-04-01 22:08:00,
2013-04-01 18:09:00,77.3,69.1,29.93,SSE,160,4.0,5.0,76,0.00,,,0.04,Wunderground v.1.15,2013-04-01 22:09:00,
2013-04-01 18:10:00,77.3,69.1,29.93,SSE,160,0.0,5.0,76,0.00,,,0.04,Wunderground v.1.15,2013-04-01 22:10:00,
2013-04-01 18:11:00,77.3,69.1,29.93,SSE,162,2.0,4.0,76,0.00,,,0.04,Wunderground v.1.15,2013-04-01 22:11:00,
2013-04-01 18:14:00,77.4,69.2,29.93,SSE,165,0.0,6.0,76,0.00,,,0.04,Wunderground v.1.15,2013-04-01 22:14:00,
2013-04-01 18:15:00,77.4,69.2,29.93,SSE,165,0.0,6.0,76,0.00,,,0.04,Wunderground v.1.15,2013-04-01 22:15:00,
2013-04-01 18:16:00,77.4,69.2,29.93,SSE,165,0.0,6.0,76,0.00,,,0.04,Wunderground v.1.15,2013-04-01 22:16:00,
2013-04-01 18:19:00,77.3,69.1,29.93,SSE,165,0.0,6.0,76,0.00,,,0.04,Wunderground v.1.15,2013-04-01 22:19:00,
2013-04-01 18:20:00,77.3,69.1,29.93,SSE,165,0.0,6.0,76,0.00,,,0.04,Wunderground v.1.15,2013-04-01 22:20:00,
2013-04-01 18:21:00,77.2,68.7,29.93,SSE,167,0.0,2.0,75,0.00,,,0.04,Wunderground v.1.15,2013-04-01 22:21:00,
2013-04-01 18:25:00,76.9,68.8,29.93,SSE,167,0.0,4.0,76,0.00,,,0.04,Wunderground v.1.15,2013-04-01 22:25:00,
2013-04-01 18:26:00,76.8,68.7,29.94,South,177,2.0,6.0,76,0.00,,,0.04,Wunderground v.1.15,2013-04-01 22:26:00,
2013-04-01 18:27:00,76.7,68.9,29.94,South,177,0.0,6.0,77,0.00,,,0.04,Wunderground v.1.15,2013-04-01 22:27:00,
2013-04-01 18:30:00,76.5,68.7,29.94,South,177,0.0,6.0,77,0.00,,,0.04,Wunderground v.1.15,2013-04-01 22:30:00,
2013-04-01 18:31:00,76.3,68.9,29.94,South,175,4.0,4.0,78,0.00,,,0.04,Wunderground v.1.15,2013-04-01 22:31:00,
2013-04-01 18:33:00,76.2,68.8,29.94,South,175,0.0,4.0,78,0.00,,,0.04,Wunderground v.1.15,2013-04-01 22:33:00,
2013-04-01 18:35:00,76.0,68.6,29.95,South,185,0.0,9.0,78,0.68,,,0.06,Wunderground v.1.15,2013-04-01 22:35:00,
2013-04-01 18:36:00,75.9,68.5,29.95,South,174,0.0,9.0,78,0.35,,,0.06,Wunderground v.1.15,2013-04-01 22:36:00,
2013-04-01 18:39:00,75.6,68.6,29.95,SSE,157,7.0,9.0,79,1.06,,,0.08,Wunderground v.1.15,2013-04-01 22:39:00,
2013-04-01 18:40:00,75.3,68.7,29.94,SSE,159,6.0,6.0,80,0.52,,,0.10,Wunderground v.1.15,2013-04-01 22:40:00,
2013-04-01 18:41:00,75.2,68.6,29.94,SSE,158,1.0,7.0,80,0.30,,,0.10,Wunderground v.1.15,2013-04-01 22:41:00,
2013-04-01 18:42:00,74.9,68.3,29.94,SSE,164,4.0,7.0,80,0.19,,,0.10,Wunderground v.1.15,2013-04-01 22:42:00,
2013-04-01 18:44:00,74.6,68.0,29.94,SSE,158,0.0,7.0,80,0.14,,,0.10,Wunderground v.1.15,2013-04-01 22:44:00,
2013-04-01 18:46:00,74.2,67.6,29.94,South,170,2.0,8.0,80,0.10,,,0.10,Wunderground v.1.15,2013-04-01 22:46:00,
2013-04-01 18:48:00,73.7,67.5,29.94,South,171,0.0,8.0,81,0.07,,,0.10,Wunderground v.1.15,2013-04-01 22:48:00,
2013-04-01 18:49:00,73.6,67.8,29.94,SSE,162,0.0,8.0,82,0.06,,,0.10,Wunderground v.1.15,2013-04-01 22:49:00,
2013-04-01 18:51:00,73.2,67.4,29.94,SSE,162,2.0,2.0,82,0.05,,,0.10,Wunderground v.1.15,2013-04-01 22:51:00,
2013-04-01 18:52:00,73.1,67.3,29.94,SSE,162,0.0,2.0,82,0.05,,,0.10,Wunderground v.1.15,2013-04-01 22:52:00,
2013-04-01 18:54:00,72.8,67.3,29.94,SSE,164,0.0,5.0,83,0.04,,,0.10,Wunderground v.1.15,2013-04-01 22:54:00,
2013-04-01 18:56:00,72.4,67.3,29.95,SSE,167,2.0,6.0,84,0.04,,,0.10,Wunderground v.1.15,2013-04-01 22:56:00,
2013-04-01 18:57:00,72.3,67.2,29.94,SSE,167,1.0,6.0,84,0.00,,,0.10,Wunderground v.1.15,2013-04-01 22:57:00,
2013-04-01 18:59:00,72.1,67.0,29.95,South,190,2.0,7.0,84,0.00,,,0.10,Wunderground v.1.15,2013-04-01 22:59:00,
2013-04-01 19:02:00,71.9,67.1,29.95,South,173,0.0,6.0,85,0.00,,,0.10,Wunderground v.1.15,2013-04-01 23:02:00,
2013-04-01 19:03:00,71.7,66.9,29.95,SSE,167,0.0,7.0,85,0.00,,,0.10,Wunderground v.1.15,2013-04-01 23:03:00,
2013-04-01 19:04:00,71.8,67.0,29.95,SSE,167,3.0,7.0,85,0.00,,,0.10,Wunderground v.1.15,2013-04-01 23:04:00,
2013-04-01 19:05:00,71.8,67.0,29.95,SSE,167,0.0,7.0,85,0.00,,,0.10,Wunderground v.1.15,2013-04-01 23:05:00,
2013-04-01 19:08:00,71.7,67.3,29.94,SSE,164,2.0,7.0,86,0.00,,,0.10,Wunderground v.1.15,2013-04-01 23:08:00,
2013-04-01 19:09:00,71.7,67.3,29.95,SSE,165,4.0,8.0,86,0.00,,,0.10,Wunderground v.1.15,2013-04-01 23:09:00,
2013-04-01 19:10:00,71.7,67.3,29.94,SSE,161,0.0,8.0,86,0.00,,,0.10,Wunderground v.1.15,2013-04-01 23:10:00,
2013-04-01 19:13:00,71.7,67.3,29.94,South,171,0.0,9.0,86,0.00,,,0.10,Wunderground v.1.15,2013-04-01 23:13:00,
2013-04-01 19:14:00,71.7,67.3,29.94,South,171,0.0,9.0,86,0.00,,,0.11,Wunderground v.1.15,2013-04-01 23:14:00,
2013-04-01 19:15:00,71.8,67.0,29.94,South,171,0.0,9.0,85,0.00,,,0.11,Wunderground v.1.15,2013-04-01 23:15:00,
2013-04-01 19:17:00,72.0,67.2,29.94,South,171,0.0,9.0,85,0.00,,,0.11,Wunderground v.1.15,2013-04-01 23:17:00,
2013-04-01 19:18:00,72.1,67.3,29.94,South,171,0.0,9.0,85,0.00,,,0.11,Wunderground v.1.15,2013-04-01 23:18:00,
2013-04-01 19:20:00,72.1,67.3,29.94,South,171,0.0,9.0,85,0.00,,,0.11,Wunderground v.1.15,2013-04-01 23:20:00,
2013-04-01 19:23:00,72.1,67.3,29.94,South,171,0.0,2.0,85,0.00,,,0.11,Wunderground v.1.15,2013-04-01 23:23:00,
2013-04-01 19:24:00,72.0,67.2,29.94,South,171,0.0,2.0,85,0.00,,,0.11,Wunderground v.1.15,2013-04-01 23:24:00,
2013-04-01 19:25:00,72.0,67.2,29.94,South,171,0.0,2.0,85,0.00,,,0.11,Wunderground v.1.15,2013-04-01 23:25:00,
2013-04-01 19:26:00,71.9,67.1,29.94,South,171,0.0,2.0,85,0.00,,,0.11,Wunderground v.1.15,2013-04-01 23:26:00,
2013-04-01 19:28:00,71.9,67.5,29.94,South,171,2.0,7.0,86,0.00,,,0.11,Wunderground v.1.15,2013-04-01 23:28:00,
2013-04-01 19:30:00,71.7,66.9,29.94,SSE,161,0.0,10.0,85,0.00,,,0.11,Wunderground v.1.15,2013-04-01 23:30:00,
2013-04-01 19:32:00,71.7,66.9,29.95,South,176,0.0,5.0,85,0.00,,,0.11,Wunderground v.1.15,2013-04-01 23:32:00,
2013-04-01 19:33:00,71.6,66.8,29.94,South,178,0.0,5.0,85,0.00,,,0.11,Wunderground v.1.15,2013-04-01 23:33:00,
2013-04-01 19:35:00,71.6,66.8,29.94,South,178,1.0,5.0,85,0.00,,,0.11,Wunderground v.1.15,2013-04-01 23:35:00,
2013-04-01 19:38:00,71.7,66.9,29.95,South,178,0.0,5.0,85,0.00,,,0.12,Wunderground v.1.15,2013-04-01 23:38:00,
2013-04-01 19:40:00,71.8,66.7,29.95,South,179,0.0,5.0,84,0.40,,,0.13,Wunderground v.1.15,2013-04-01 23:40:00,
2013-04-01 19:43:00,71.9,67.5,29.96,South,181,0.0,1.0,86,0.62,,,0.17,Wunderground v.1.15,2013-04-01 23:43:00,
2013-04-01 19:45:00,71.6,67.2,29.96,South,181,0.0,1.0,86,1.36,,,0.21,Wunderground v.1.15,2013-04-01 23:45:00,
2013-04-01 19:46:00,71.5,67.1,29.96,South,181,0.0,1.0,86,1.04,,,0.21,Wunderground v.1.15,2013-04-01 23:46:00,
2013-04-01 19:48:00,71.1,67.0,29.97,South,181,0.0,1.0,87,0.23,,,0.22,Wunderground v.1.15,2013-04-01 23:48:00,
2013-04-01 19:50:00,70.8,66.7,29.97,South,181,0.0,1.0,87,0.14,,,0.23,Wunderground v.1.15,2013-04-01 23:50:00,
2013-04-01 19:51:00,70.7,67.0,29.97,South,181,0.0,0.0,88,0.67,,,0.24,Wunderground v.1.15,2013-04-01 23:51:00,
2013-04-01 19:53:00,70.5,66.8,29.97,South,181,0.0,0.0,88,1.63,,,0.28,Wunderground v.1.15,2013-04-01 23:53:00,
2013-04-01 19:56:00,70.4,67.0,29.96,South,172,4.0,5.0,89,1.78,,,0.35,Wunderground v.1.15,2013-04-01 23:56:00,
2013-04-01 19:59:00,70.4,67.0,29.96,SE,127,5.0,6.0,89,1.60,,,0.41,Wunderground v.1.15,2013-04-01 23:59:00,
2013-04-01 20:01:00,70.5,67.1,29.96,SE,146,1.0,4.0,89,0.26,,,0.43,Wunderground v.1.15,2013-04-02 00:01:00,
2013-04-01 20:02:00,70.5,67.1,29.96,SSE,151,2.0,4.0,89,0.23,,,0.43,Wunderground v.1.15,2013-04-02 00:02:00,
2013-04-01 20:04:00,70.6,67.2,29.96,SSE,153,0.0,4.0,89,0.17,,,0.44,Wunderground v.1.15,2013-04-02 00:04:00,
2013-04-01 20:07:00,70.6,67.2,29.96,SSE,153,0.0,4.0,89,0.13,,,0.44,Wunderground v.1.15,2013-04-02 00:07:00,
2013-04-01 20:09:00,70.7,67.3,29.96,SSE,154,0.0,4.0,89,0.09,,,0.44,Wunderground v.1.15,2013-04-02 00:09:00,
2013-04-01 20:10:00,70.8,67.4,29.96,SSE,154,0.0,4.0,89,0.08,,,0.44,Wunderground v.1.15,2013-04-02 00:10:00,
2013-04-01 20:12:00,70.9,67.5,29.96,SSE,154,0.0,1.0,89,0.06,,,0.44,Wunderground v.1.15,2013-04-02 00:12:00,
2013-04-01 20:14:00,71.0,67.6,29.96,SSE,154,0.0,1.0,89,0.05,,,0.44,Wunderground v.1.15,2013-04-02 00:14:00,
2013-04-01 20:15:00,71.0,67.6,29.96,SSE,154,0.0,1.0,89,0.05,,,0.44,Wunderground v.1.15,2013-04-02 00:15:00,
2013-04-01 20:17:00,71.0,67.6,29.96,SSE,155,1.0,1.0,89,0.04,,,0.44,Wunderground v.1.15,2013-04-02 00:17:00,
2013-04-01 20:18:00,71.0,67.6,29.96,SSE,155,0.0,1.0,89,0.04,,,0.44,Wunderground v.1.15,2013-04-02 00:18:00,
2013-04-01 20:20:00,71.1,67.7,29.97,SSE,155,0.0,0.0,89,0.00,,,0.44,Wunderground v.1.15,2013-04-02 00:20:00,
2013-04-01 20:21:00,71.1,67.7,29.97,SSE,155,0.0,0.0,89,0.00,,,0.44,Wunderground v.1.15,2013-04-02 00:21:00,
2013-04-01 20:23:00,71.1,67.7,29.97,SSE,155,0.0,0.0,89,0.00,,,0.44,Wunderground v.1.15,2013-04-02 00:23:00,
2013-04-01 20:26:00,71.2,67.8,29.97,SSE,155,0.0,0.0,89,0.00,,,0.44,Wunderground v.1.15,2013-04-02 00:26:00,
2013-04-01 20:27:00,71.2,67.8,29.97,SSE,155,0.0,0.0,89,0.00,,,0.44,Wunderground v.1.15,2013-04-02 00:27:00,
2013-04-01 20:28:00,71.3,67.6,29.97,SSE,155,0.0,0.0,88,0.00,,,0.44,Wunderground v.1.15,2013-04-02 00:28:00,
2013-04-01 20:32:00,71.4,67.7,29.97,SSE,155,0.0,0.0,88,0.00,,,0.44,Wunderground v.1.15,2013-04-02 00:32:00,
2013-04-01 20:33:00,71.5,67.8,29.97,SSE,155,0.0,0.0,88,0.00,,,0.44,Wunderground v.1.15,2013-04-02 00:33:00,
2013-04-01 20:37:00,71.6,67.9,29.97,SSE,155,0.0,0.0,88,0.00,,,0.44,Wunderground v.1.15,2013-04-02 00:37:00,
2013-04-01 20:38:00,71.6,67.9,29.97,SSE,155,0.0,0.0,88,0.00,,,0.44,Wunderground v.1.15,2013-04-02 00:38:00,
2013-04-01 20:39:00,71.6,67.5,29.97,SSE,155,0.0,0.0,87,0.00,,,0.44,Wunderground v.1.15,2013-04-02 00:39:00,
2013-04-01 20:42:00,71.7,67.6,29.97,SSE,154,0.0,0.0,87,0.00,,,0.44,Wunderground v.1.15,2013-04-02 00:42:00,
2013-04-01 20:43:00,71.7,67.6,29.97,SSE,155,0.0,0.0,87,0.00,,,0.44,Wunderground v.1.15,2013-04-02 00:43:00,
2013-04-01 20:44:00,71.7,67.6,29.97,SSE,155,0.0,0.0,87,0.00,,,0.44,Wunderground v.1.15,2013-04-02 00:44:00,
2013-04-01 20:48:00,71.7,67.6,29.97,SSE,155,0.0,0.0,87,0.00,,,0.44,Wunderground v.1.15,2013-04-02 00:48:00,
2013-04-01 20:49:00,71.7,67.3,29.97,SSE,155,0.0,0.0,86,0.00,,,0.44,Wunderground v.1.15,2013-04-02 00:49:00,
2013-04-01 20:53:00,71.4,67.3,29.97,SSE,155,0.0,0.0,87,0.00,,,0.44,Wunderground v.1.15,2013-04-02 00:53:00,
2013-04-01 20:55:00,71.3,67.2,29.97,SSE,155,0.0,0.0,87,0.00,,,0.44,Wunderground v.1.15,2013-04-02 00:55:00,
2013-04-01 20:56:00,71.2,67.1,29.97,SSE,155,0.0,0.0,87,0.00,,,0.44,Wunderground v.1.15,2013-04-02 00:56:00,
2013-04-01 20:59:00,70.9,67.2,29.97,SSE,154,0.0,0.0,88,0.00,,,0.44,Wunderground v.1.15,2013-04-02 00:59:00,
2013-04-01 21:00:00,70.8,67.1,29.97,SSE,155,0.0,0.0,88,0.00,,,0.44,Wunderground v.1.15,2013-04-02 01:00:00,
2013-04-01 21:02:00,70.8,67.1,29.97,SSE,155,0.0,0.0,88,0.00,,,0.44,Wunderground v.1.15,2013-04-02 01:02:00,
2013-04-01 21:04:00,70.6,66.9,29.98,SSE,155,0.0,0.0,88,0.00,,,0.44,Wunderground v.1.15,2013-04-02 01:04:00,
2013-04-01 21:06:00,70.5,67.1,29.97,SSE,155,0.0,0.0,89,0.00,,,0.44,Wunderground v.1.15,2013-04-02 01:06:00,
2013-04-01 21:07:00,70.4,67.0,29.97,SSE,155,0.0,0.0,89,0.00,,,0.44,Wunderground v.1.15,2013-04-02 01:07:00,
2013-04-01 21:09:00,70.4,67.0,29.97,SSE,155,0.0,0.0,89,0.00,,,0.44,Wunderground v.1.15,2013-04-02 01:09:00,
2013-04-01 21:10:00,70.5,67.1,29.97,SSE,155,0.0,0.0,89,0.00,,,0.44,Wunderground v.1.15,2013-04-02 01:10:00,
2013-04-01 21:11:00,70.5,67.1,29.97,SSE,155,0.0,0.0,89,0.00,,,0.44,Wunderground v.1.15,2013-04-02 01:11:00,
2013-04-01 21:12:00,70.5,67.1,29.97,SSE,155,0.0,0.0,89,0.00,,,0.44,Wunderground v.1.15,2013-04-02 01:12:00,
2013-04-01 21:15:00,70.5,67.1,29.98,SSE,154,0.0,0.0,89,0.00,,,0.44,Wunderground v.1.15,2013-04-02 01:15:00,
2013-04-01 21:17:00,70.4,67.0,29.98,SSE,155,0.0,0.0,89,0.00,,,0.44,Wunderground v.1.15,2013-04-02 01:17:00,
2013-04-01 21:20:00,70.1,66.7,29.98,SSE,155,0.0,0.0,89,0.00,,,0.44,Wunderground v.1.15,2013-04-02 01:20:00,
2013-04-01 21:23:00,70.0,66.6,29.98,SSE,154,0.0,0.0,89,0.00,,,0.44,Wunderground v.1.15,2013-04-02 01:23:00,
2013-04-01 21:25:00,69.8,66.4,29.98,SSE,155,0.0,0.0,89,0.00,,,0.44,Wunderground v.1.15,2013-04-02 01:25:00,
2013-04-01 21:26:00,69.8,66.7,29.98,SSE,155,0.0,0.0,90,0.00,,,0.44,Wunderground v.1.15,2013-04-02 01:26:00,
2013-04-01 21:29:00,69.6,66.5,29.98,SSE,155,0.0,0.0,90,0.00,,,0.44,Wunderground v.1.15,2013-04-02 01:29:00,
2013-04-01 21:30:00,69.5,66.4,29.98,SSE,155,0.0,0.0,90,0.00,,,0.44,Wunderground v.1.15,2013-04-02 01:30:00,
2013-04-01 21:31:00,69.5,66.4,29.98,SSE,155,0.0,0.0,90,0.00,,,0.44,Wunderground v.1.15,2013-04-02 01:31:00,
2013-04-01 21:34:00,69.3,66.2,29.98,SSE,155,0.0,0.0,90,0.00,,,0.44,Wunderground v.1.15,2013-04-02 01:34:00,
2013-04-01 21:36:00,69.1,66.0,29.98,SSE,154,0.0,0.0,90,0.00,,,0.44,Wunderground v.1.15,2013-04-02 01:36:00,
2013-04-01 21:37:00,69.0,65.9,29.98,SSE,155,0.0,0.0,90,0.00,,,0.44,Wunderground v.1.15,2013-04-02 01:37:00,
2013-04-01 21:40:00,68.8,66.1,29.98,SSE,155,0.0,0.0,91,0.00,,,0.44,Wunderground v.1.15,2013-04-02 01:40:00,
2013-04-01 21:42:00,68.7,66.0,29.98,SSE,155,0.0,0.0,91,0.00,,,0.44,Wunderground v.1.15,2013-04-02 01:42:00,
2013-04-01 21:45:00,68.5,66.1,29.98,SSE,154,0.0,0.0,92,0.00,,,0.44,Wunderground v.1.15,2013-04-02 01:45:00,
2013-04-01 21:47:00,68.6,66.2,29.98,SSE,154,0.0,0.0,92,0.00,,,0.44,Wunderground v.1.15,2013-04-02 01:47:00,
2013-04-01 21:48:00,68.7,66.3,29.98,SSE,155,0.0,0.0,92,0.00,,,0.44,Wunderground v.1.15,2013-04-02 01:48:00,
2013-04-01 21:51:00,68.8,66.4,29.98,SSE,154,0.0,0.0,92,0.00,,,0.44,Wunderground v.1.15,2013-04-02 01:51:00,
2013-04-01 21:52:00,68.8,66.4,29.98,SSE,155,0.0,0.0,92,0.00,,,0.44,Wunderground v.1.15,2013-04-02 01:52:00,
2013-04-01 21:53:00,68.7,66.3,29.99,SSE,155,0.0,0.0,92,0.00,,,0.44,Wunderground v.1.15,2013-04-02 01:53:00,
2013-04-01 21:56:00,68.4,66.0,29.98,SSE,154,0.0,0.0,92,0.00,,,0.44,Wunderground v.1.15,2013-04-02 01:56:00,
2013-04-01 21:57:00,68.4,66.0,29.99,SSE,154,0.0,0.0,92,0.00,,,0.44,Wunderground v.1.15,2013-04-02 01:57:00,
2013-04-01 21:58:00,68.4,66.0,29.99,SSE,155,0.0,0.0,92,0.00,,,0.44,Wunderground v.1.15,2013-04-02 01:58:00,
2013-04-01 22:02:00,68.2,65.8,29.99,SSE,154,0.0,0.0,92,0.00,,,0.44,Wunderground v.1.15,2013-04-02 02:02:00,
2013-04-01 22:04:00,68.2,65.8,29.99,SSE,155,0.0,0.0,92,0.00,,,0.44,Wunderground v.1.15,2013-04-02 02:04:00,
2013-04-01 22:07:00,68.4,66.3,29.99,SSE,155,0.0,0.0,93,0.00,,,0.44,Wunderground v.1.15,2013-04-02 02:07:00,
2013-04-01 22:09:00,68.5,66.4,29.99,SSE,155,0.0,0.0,93,0.00,,,0.44,Wunderground v.1.15,2013-04-02 02:09:00,
2013-04-01 22:10:00,68.5,66.4,29.99,SSE,155,0.0,0.0,93,0.00,,,0.44,Wunderground v.1.15,2013-04-02 02:10:00,
2013-04-01 22:12:00,68.6,66.5,29.99,SSE,155,0.0,0.0,93,0.00,,,0.44,Wunderground v.1.15,2013-04-02 02:12:00,
2013-04-01 22:14:00,68.6,66.5,29.99,SSE,155,0.0,0.0,93,0.00,,,0.44,Wunderground v.1.15,2013-04-02 02:14:00,
2013-04-01 22:15:00,68.6,66.5,29.99,SSE,155,0.0,0.0,93,0.00,,,0.44,Wunderground v.1.15,2013-04-02 02:15:00,
2013-04-01 22:17:00,68.6,66.5,29.99,SSE,155,0.0,0.0,93,0.00,,,0.44,Wunderground v.1.15,2013-04-02 02:17:00,
2013-04-01 22:19:00,68.6,66.5,30.00,SSE,155,0.0,0.0,93,0.00,,,0.44,Wunderground v.1.15,2013-04-02 02:19:00,
2013-04-01 22:20:00,68.6,66.5,30.00,SSE,154,0.0,0.0,93,0.00,,,0.44,Wunderground v.1.15,2013-04-02 02:20:00,
2013-04-01 22:23:00,68.5,66.1,29.99,SSE,155,0.0,0.0,92,0.00,,,0.44,Wunderground v.1.15,2013-04-02 02:23:00,
2013-04-01 22:25:00,68.5,66.1,29.99,SSE,155,0.0,0.0,92,0.00,,,0.44,Wunderground v.1.15,2013-04-02 02:25:00,
2013-04-01 22:29:00,68.2,65.8,29.99,SSE,155,0.0,0.0,92,0.00,,,0.44,Wunderground v.1.15,2013-04-02 02:29:00,
2013-04-01 22:30:00,68.1,65.7,29.99,SSE,154,0.0,0.0,92,0.00,,,0.44,Wunderground v.1.15,2013-04-02 02:30:00,
2013-04-01 22:32:00,68.1,66.0,29.99,SSE,154,0.0,0.0,93,0.00,,,0.44,Wunderground v.1.15,2013-04-02 02:32:00,
2013-04-01 22:34:00,68.1,66.0,29.99,SSE,154,0.0,0.0,93,0.00,,,0.44,Wunderground v.1.15,2013-04-02 02:34:00,
2013-04-01 22:35:00,68.0,65.9,29.99,SSE,155,0.0,0.0,93,0.00,,,0.44,Wunderground v.1.15,2013-04-02 02:35:00,
2013-04-01 22:36:00,68.0,65.9,30.00,SSE,155,0.0,0.0,93,0.00,,,0.44,Wunderground v.1.15,2013-04-02 02:36:00,
2013-04-01 22:37:00,68.0,65.9,30.00,SSE,155,0.0,0.0,93,0.00,,,0.44,Wunderground v.1.15,2013-04-02 02:37:00,
2013-04-01 22:40:00,67.9,65.8,30.00,SSE,155,0.0,0.0,93,0.00,,,0.44,Wunderground v.1.15,2013-04-02 02:40:00,
2013-04-01 22:41:00,67.9,65.8,30.00,SSE,155,0.0,0.0,93,0.00,,,0.44,Wunderground v.1.15,2013-04-02 02:41:00,
2013-04-01 22:42:00,67.9,65.8,30.00,SSE,154,0.0,0.0,93,0.00,,,0.44,Wunderground v.1.15,2013-04-02 02:42:00,
2013-04-01 22:45:00,67.8,65.7,30.00,SSE,155,0.0,0.0,93,0.00,,,0.44,Wunderground v.1.15,2013-04-02 02:45:00,
2013-04-01 22:46:00,67.8,65.7,30.00,SSE,155,0.0,0.0,93,0.00,,,0.44,Wunderground v.1.15,2013-04-02 02:46:00,
2013-04-01 22:47:00,67.8,65.7,30.00,SSE,154,0.0,0.0,93,0.00,,,0.44,Wunderground v.1.15,2013-04-02 02:47:00,
2013-04-01 22:51:00,67.8,65.7,30.00,SSE,154,0.0,0.0,93,0.00,,,0.44,Wunderground v.1.15,2013-04-02 02:51:00,
2013-04-01 22:52:00,67.7,65.6,30.00,SSE,154,0.0,0.0,93,0.00,,,0.44,Wunderground v.1.15,2013-04-02 02:52:00,
2013-04-01 22:54:00,67.6,65.5,30.00,SSE,154,0.0,0.0,93,0.00,,,0.44,Wunderground v.1.15,2013-04-02 02:54:00,
2013-04-01 22:57:00,67.5,65.7,29.99,SSE,155,0.0,0.0,94,0.00,,,0.44,Wunderground v.1.15,2013-04-02 02:57:00,
2013-04-01 22:59:00,67.5,65.7,29.99,SSE,155,0.0,0.0,94,0.00,,,0.44,Wunderground v.1.15,2013-04-02 02:59:00,
2013-04-01 23:02:00,67.3,65.5,30.00,SSE,155,0.0,0.0,94,0.00,,,0.44,Wunderground v.1.15,2013-04-02 03:02:00,
2013-04-01 23:04:00,67.3,65.5,29.99,SSE,155,0.0,0.0,94,0.00,,,0.44,Wunderground v.1.15,2013-04-02 03:04:00,
2013-04-01 23:07:00,67.2,65.4,30.00,SSE,155,0.0,0.0,94,0.00,,,0.44,Wunderground v.1.15,2013-04-02 03:07:00,
2013-04-01 23:09:00,67.2,65.4,29.99,SSE,155,0.0,0.0,94,0.00,,,0.44,Wunderground v.1.15,2013-04-02 03:09:00,
2013-04-01 23:10:00,67.1,65.3,30.00,SSE,155,0.0,0.0,94,0.00,,,0.44,Wunderground v.1.15,2013-04-02 03:10:00,
2013-04-01 23:12:00,67.1,65.3,29.99,SSE,155,0.0,0.0,94,0.00,,,0.44,Wunderground v.1.15,2013-04-02 03:12:00,
2013-04-01 23:13:00,67.1,65.3,29.99,SSE,154,0.0,0.0,94,0.00,,,0.44,Wunderground v.1.15,2013-04-02 03:13:00,
2013-04-01 23:14:00,67.0,65.2,29.99,SSE,155,0.0,0.0,94,0.00,,,0.44,Wunderground v.1.15,2013-04-02 03:14:00,
2013-04-01 23:15:00,67.0,65.2,29.99,SSE,155,0.0,0.0,94,0.00,,,0.44,Wunderground v.1.15,2013-04-02 03:15:00,
2013-04-01 23:18:00,66.9,65.1,29.99,SSE,154,0.0,0.0,94,0.00,,,0.44,Wunderground v.1.15,2013-04-02 03:18:00,
2013-04-01 23:19:00,66.8,65.0,29.99,SSE,155,0.0,0.0,94,0.00,,,0.44,Wunderground v.1.15,2013-04-02 03:19:00,
2013-04-01 23:20:00,66.8,65.0,29.99,SSE,155,0.0,0.0,94,0.00,,,0.44,Wunderground v.1.15,2013-04-02 03:20:00,
2013-04-01 23:23:00,66.8,65.0,29.99,SSE,155,0.0,0.0,94,0.00,,,0.44,Wunderground v.1.15,2013-04-02 03:23:00,
2013-04-01 23:24:00,66.7,64.9,29.99,SSE,154,0.0,0.0,94,0.00,,,0.44,Wunderground v.1.15,2013-04-02 03:24:00,
2013-04-01 23:26:00,66.7,64.9,29.99,SSE,155,0.0,0.0,94,0.00,,,0.44,Wunderground v.1.15,2013-04-02 03:26:00,
2013-04-01 23:28:00,66.7,64.9,29.99,SSE,155,0.0,0.0,94,0.00,,,0.44,Wunderground v.1.15,2013-04-02 03:28:00,
2013-04-01 23:30:00,66.7,64.9,30.00,SSE,154,0.0,0.0,94,0.00,,,0.44,Wunderground v.1.15,2013-04-02 03:30:00,
2013-04-01 23:31:00,66.7,64.9,30.00,SSE,154,0.0,0.0,94,0.00,,,0.44,Wunderground v.1.15,2013-04-02 03:31:00,
2013-04-01 23:33:00,66.7,64.9,30.00,SSE,155,0.0,0.0,94,0.00,,,0.44,Wunderground v.1.15,2013-04-02 03:33:00,
2013-04-01 23:34:00,66.7,64.9,30.00,SSE,155,0.0,0.0,94,0.00,,,0.44,Wunderground v.1.15,2013-04-02 03:34:00,
2013-04-01 23:35:00,66.7,64.9,30.00,SSE,154,0.0,0.0,94,0.00,,,0.44,Wunderground v.1.15,2013-04-02 03:35:00,
2013-04-01 23:36:00,66.7,65.2,30.00,SSE,154,0.0,0.0,95,0.00,,,0.44,Wunderground v.1.15,2013-04-02 03:36:00,
2013-04-01 23:38:00,66.7,65.2,30.00,SSE,154,0.0,0.0,95,0.00,,,0.44,Wunderground v.1.15,2013-04-02 03:38:00,
2013-04-01 23:39:00,66.7,65.2,30.00,SSE,154,0.0,0.0,95,0.00,,,0.44,Wunderground v.1.15,2013-04-02 03:39:00,
2013-04-01 23:40:00,66.7,65.2,30.00,SSE,154,0.0,0.0,95,0.00,,,0.44,Wunderground v.1.15,2013-04-02 03:40:00,
2013-04-01 23:41:00,66.7,65.2,30.00,SSE,154,0.0,0.0,95,0.00,,,0.44,Wunderground v.1.15,2013-04-02 03:41:00,
2013-04-01 23:44:00,66.7,65.2,30.00,SSE,154,0.0,0.0,95,0.00,,,0.44,Wunderground v.1.15,2013-04-02 03:44:00,
2013-04-01 23:45:00,66.7,65.2,30.00,SSE,155,0.0,0.0,95,0.00,,,0.44,Wunderground v.1.15,2013-04-02 03:45:00,
2013-04-01 23:46:00,66.7,65.2,30.00,SSE,154,0.0,0.0,95,0.00,,,0.44,Wunderground v.1.15,2013-04-02 03:46:00,
2013-04-01 23:50:00,66.5,65.0,30.00,SSE,154,0.0,0.0,95,0.00,,,0.44,Wunderground v.1.15,2013-04-02 03:50:00,
2013-04-01 23:51:00,66.4,64.9,30.00,SSE,154,0.0,0.0,95,0.00,,,0.44,Wunderground v.1.15,2013-04-02 03:51:00,
2013-04-01 23:52:00,66.5,65.0,30.00,SSE,154,0.0,0.0,95,0.00,,,0.44,Wunderground v.1.15,2013-04-02 03:52:00,
2013-04-01 23:55:00,66.4,64.9,30.00,SSE,155,0.0,0.0,95,0.00,,,0.44,Wunderground v.1.15,2013-04-02 03:55:00,
2013-04-01 23:57:00,66.4,64.9,30.00,SSE,154,0.0,0.0,95,0.00,,,0.44,Wunderground v.1.15,2013-04-02 03:57:00,